| time (UTC) | temp F | wind direction | speed MPH | gust MPH | rain 1hr in | rain 24hr in | rain mn in | humidity % | barometer mb |
| 20260505075459 | 65 | 225 | 3.0 | 7.0 | 0.00 | 0.00 | 0.00 | 61 | 1006.7 |
| 20260505075401 | 65 | 204 | 5.0 | 7.0 | 0.00 | 0.00 | 0.00 | 61 | 1006.6 |
| 20260505075259 | 65 | 173 | 2.0 | 7.0 | 0.00 | 0.00 | 0.00 | 61 | 1006.6 |
| 20260505075159 | 65 | 86 | 2.0 | 7.0 | 0.00 | 0.00 | 0.00 | 61 | 1006.6 |
| 20260505074959 | 65 | 148 | 0.0 | 7.0 | 0.00 | 0.00 | 0.00 | 61 | 1006.7 |
| 20260505074859 | 65 | 132 | 0.0 | 9.0 | 0.00 | 0.00 | 0.00 | 61 | 1006.7 |
| 20260505074759 | 65 | 217 | 1.0 | 9.0 | 0.00 | 0.00 | 0.00 | 61 | 1006.7 |
| 20260505074701 | 65 | 171 | 2.0 | 9.0 | 0.00 | 0.00 | 0.00 | 61 | 1006.7 |
| 20260505074559 | 65 | 167 | 3.0 | 9.0 | 0.00 | 0.00 | 0.00 | 61 | 1006.7 |
| 20260505074401 | 65 | 227 | 3.0 | 9.0 | 0.00 | 0.00 | 0.00 | 61 | 1006.7 |
| 20260505074259 | 65 | 243 | 0.0 | 9.0 | 0.00 | 0.00 | 0.00 | 60 | 1006.7 |
| 20260505074159 | 65 | 273 | 2.0 | 9.0 | 0.00 | 0.00 | 0.00 | 60 | 1006.6 |
| 20260505074101 | 65 | 277 | 3.0 | 9.0 | 0.00 | 0.00 | 0.00 | 60 | 1006.7 |
| 20260505073959 | 65 | 117 | 0.0 | 9.0 | 0.00 | 0.00 | 0.00 | 61 | 1006.5 |
| 20260505073859 | 65 | 205 | 3.0 | 11.0 | 0.00 | 0.00 | 0.00 | 61 | 1006.6 |
| 20260505073759 | 65 | 207 | 3.0 | 11.0 | 0.00 | 0.00 | 0.00 | 60 | 1006.5 |
| 20260505073659 | 65 | 332 | 4.0 | 11.0 | 0.00 | 0.00 | 0.00 | 60 | 1006.5 |
| 20260505073559 | 65 | 180 | 0.0 | 11.0 | 0.00 | 0.00 | 0.00 | 60 | 1006.4 |
| 20260505073500 | 65 | 211 | 0.0 | 11.0 | 0.00 | 0.00 | 0.00 | 60 | 1006.4 |
| 20260505073259 | 65 | 180 | 3.0 | 11.0 | 0.00 | 0.00 | 0.00 | 60 | 1006.4 |
| 20260505073158 | 65 | 275 | 2.0 | 11.0 | 0.00 | 0.00 | 0.00 | 60 | 1006.4 |
| 20260505073059 | 65 | 181 | 2.0 | 11.0 | 0.00 | 0.00 | 0.00 | 60 | 1006.4 |
| 20260505072959 | 65 | 173 | 3.0 | 9.0 | 0.00 | 0.00 | 0.00 | 60 | 1006.3 |
| 20260505072901 | 65 | 161 | 5.0 | 8.0 | 0.00 | 0.00 | 0.00 | 60 | 1006.4 |
| 20260505072758 | 65 | 210 | 2.0 | 9.0 | 0.00 | 0.00 | 0.00 | 60 | 1006.3 |
| 20260505072658 | 65 | 165 | 1.0 | 9.0 | 0.00 | 0.00 | 0.00 | 60 | 1006.3 |
| 20260505072459 | 65 | 229 | 2.0 | 9.0 | 0.00 | 0.00 | 0.00 | 60 | 1006.2 |
| 20260505072359 | 65 | 193 | 3.0 | 9.0 | 0.00 | 0.00 | 0.00 | 60 | 1006.2 |
| 20260505072259 | 65 | 252 | 5.0 | 9.0 | 0.00 | 0.00 | 0.00 | 60 | 1006.2 |
| 20260505072159 | 65 | 203 | 2.0 | 9.0 | 0.00 | 0.00 | 0.00 | 60 | 1006.3 |
| 20260505072059 | 65 | 183 | 1.0 | 10.0 | 0.00 | 0.00 | 0.00 | 60 | 1006.2 |
| 20260505071958 | 65 | 311 | 2.0 | 10.0 | 0.00 | 0.00 | 0.00 | 59 | 1006.3 |
| 20260505071901 | 65 | 246 | 7.0 | 10.0 | 0.00 | 0.00 | 0.00 | 59 | 1006.1 |
| 20260505071800 | 65 | 140 | 3.0 | 10.0 | 0.00 | 0.00 | 0.00 | 59 | 1006.1 |
| 20260505071559 | 65 | 138 | 4.0 | 10.0 | 0.00 | 0.00 | 0.00 | 60 | 1006.1 |
| 20260505071459 | 65 | 213 | 3.0 | 10.0 | 0.00 | 0.00 | 0.00 | 59 | 1006.1 |
| 20260505071359 | 65 | 186 | 3.0 | 10.0 | 0.00 | 0.00 | 0.00 | 59 | 1006.1 |
| 20260505071259 | 65 | 208 | 1.0 | 10.0 | 0.00 | 0.00 | 0.00 | 59 | 1006.1 |
| 20260505071158 | 65 | 201 | 9.0 | 11.0 | 0.00 | 0.00 | 0.00 | 60 | 1006.1 |
| 20260505071100 | 65 | 284 | 2.0 | 9.0 | 0.00 | 0.00 | 0.00 | 59 | 1006.2 |
| 20260505071000 | 65 | 134 | 1.0 | 9.0 | 0.00 | 0.00 | 0.00 | 59 | 1006.1 |
| 20260505070900 | 66 | 21 | 1.0 | 9.0 | 0.00 | 0.00 | 0.00 | 59 | 1006.2 |
| 20260505070658 | 66 | 222 | 2.0 | 9.0 | 0.00 | 0.00 | 0.00 | 59 | 1006.2 |
| 20260505070559 | 66 | 325 | 2.0 | 9.0 | 0.00 | 0.00 | 0.00 | 59 | 1006.2 |
| 20260505070459 | 66 | 204 | 5.0 | 9.0 | 0.00 | 0.00 | 0.00 | 59 | 1006.3 |
| 20260505070300 | 66 | 213 | 3.0 | 8.0 | 0.00 | 0.00 | 0.00 | 59 | 1006.3 |
| 20260505070158 | 66 | 96 | 0.0 | 9.0 | 0.00 | 0.00 | 0.00 | 59 | 1006.2 |
| 20260505070059 | 66 | 185 | 2.0 | 10.0 | 0.00 | 0.00 | 0.00 | 58 | 1006.4 |
| 20260505070003 | 66 | 298 | 5.0 | 10.0 | 0.00 | 0.00 | 0.00 | 59 | 1006.4 |
| 20260505065858 | 66 | 198 | 3.0 | 10.0 | 0.00 | 0.00 | 0.00 | 59 | 1006.3 |
| 20260505065758 | 66 | 161 | 0.0 | 10.0 | 0.00 | 0.00 | 0.00 | 58 | 1006.3 |
| 20260505065659 | 66 | 194 | 4.0 | 13.0 | 0.00 | 0.00 | 0.00 | 59 | 1006.3 |
| 20260505065600 | 66 | 250 | 0.0 | 13.0 | 0.00 | 0.00 | 0.00 | 59 | 1006.3 |
| 20260505065458 | 66 | 202 | 3.0 | 13.0 | 0.00 | 0.00 | 0.00 | 58 | 1006.3 |
| 20260505065400 | 66 | 170 | 2.0 | 13.0 | 0.00 | 0.00 | 0.00 | 59 | 1006.4 |
| 20260505065159 | 66 | 207 | 10.0 | 13.0 | 0.00 | 0.00 | 0.00 | 58 | 1006.3 |
| 20260505065059 | 66 | 236 | 3.0 | 13.0 | 0.00 | 0.00 | 0.00 | 58 | 1006.3 |
| 20260505065000 | 66 | 209 | 3.0 | 13.0 | 0.00 | 0.00 | 0.00 | 58 | 1006.4 |
| 20260505064901 | 66 | 222 | 2.0 | 13.0 | 0.00 | 0.00 | 0.00 | 58 | 1006.4 |
| 20260505064759 | 66 | 199 | 8.0 | 10.0 | 0.00 | 0.00 | 0.00 | 58 | 1006.4 |
| 20260505064659 | 66 | 69 | 0.0 | 9.0 | 0.00 | 0.00 | 0.00 | 58 | 1006.4 |
| 20260505064559 | 66 | 189 | 4.0 | 9.0 | 0.00 | 0.00 | 0.00 | 58 | 1006.4 |
| 20260505064458 | 66 | 183 | 4.0 | 9.0 | 0.00 | 0.00 | 0.00 | 58 | 1006.3 |
| 20260505064359 | 66 | 161 | 5.0 | 9.0 | 0.00 | 0.00 | 0.00 | 58 | 1006.4 |
| 20260505064159 | 66 | 219 | 3.0 | 9.0 | 0.00 | 0.00 | 0.00 | 59 | 1006.4 |
| 20260505064059 | 66 | 142 | 3.0 | 9.0 | 0.00 | 0.00 | 0.00 | 58 | 1006.4 |
| 20260505063959 | 66 | 197 | 6.0 | 9.0 | 0.00 | 0.00 | 0.00 | 58 | 1006.5 |
| 20260505063859 | 66 | 192 | 3.0 | 10.0 | 0.00 | 0.00 | 0.00 | 59 | 1006.3 |
| 20260505063758 | 66 | 167 | 1.0 | 10.0 | 0.00 | 0.00 | 0.00 | 58 | 1006.4 |
| 20260505063659 | 66 | 157 | 2.0 | 10.0 | 0.00 | 0.00 | 0.00 | 58 | 1006.4 |
| 20260505063559 | 66 | 173 | 2.0 | 10.0 | 0.00 | 0.00 | 0.00 | 58 | 1006.4 |
| 20260505063500 | 66 | 211 | 3.0 | 10.0 | 0.00 | 0.00 | 0.00 | 58 | 1006.4 |
| 20260505063402 | 66 | 229 | 2.0 | 11.0 | 0.00 | 0.00 | 0.00 | 58 | 1006.5 |
| 20260505063259 | 66 | 198 | 4.0 | 11.0 | 0.00 | 0.00 | 0.00 | 58 | 1006.5 |
| 20260505063158 | 66 | 314 | 4.0 | 11.0 | 0.00 | 0.00 | 0.00 | 58 | 1006.3 |
| 20260505063000 | 66 | 214 | 2.0 | 11.0 | 0.00 | 0.00 | 0.00 | 58 | 1006.4 |
| 20260505062859 | 66 | 103 | 2.0 | 11.0 | 0.00 | 0.00 | 0.00 | 58 | 1006.4 |
| 20260505062800 | 66 | 313 | 2.0 | 11.0 | 0.00 | 0.00 | 0.00 | 58 | 1006.5 |
| 20260505062559 | 66 | 188 | 2.0 | 11.0 | 0.00 | 0.00 | 0.00 | 58 | 1006.5 |
| 20260505062500 | 66 | 143 | 4.0 | 12.0 | 0.00 | 0.00 | 0.00 | 58 | 1006.5 |
| 20260505062400 | 66 | 208 | 2.0 | 12.0 | 0.00 | 0.00 | 0.00 | 58 | 1006.5 |
| 20260505062159 | 66 | 144 | 6.0 | 12.0 | 0.00 | 0.00 | 0.00 | 58 | 1006.4 |
| 20260505062100 | 66 | 192 | 3.0 | 12.0 | 0.00 | 0.00 | 0.00 | 58 | 1006.5 |
| 20260505061859 | 66 | 74 | 3.0 | 12.0 | 0.00 | 0.00 | 0.00 | 58 | 1006.4 |
| 20260505061801 | 66 | 221 | 5.0 | 10.0 | 0.00 | 0.00 | 0.00 | 58 | 1006.5 |
| 20260505061700 | 66 | 105 | 2.0 | 10.0 | 0.00 | 0.00 | 0.00 | 58 | 1006.6 |
| 20260505061600 | 66 | 188 | 5.0 | 10.0 | 0.00 | 0.00 | 0.00 | 59 | 1006.4 |
| 20260505061459 | 66 | 122 | 5.0 | 10.0 | 0.00 | 0.00 | 0.00 | 58 | 1006.5 |
| 20260505061300 | 66 | 201 | 2.0 | 10.0 | 0.00 | 0.00 | 0.00 | 58 | 1006.5 |
| 20260505061200 | 66 | 190 | 4.0 | 10.0 | 0.00 | 0.00 | 0.00 | 58 | 1006.4 |
| 20260505060958 | 66 | 197 | 3.0 | 10.0 | 0.00 | 0.00 | 0.00 | 58 | 1006.3 |
| 20260505060900 | 66 | 186 | 8.0 | 9.0 | 0.00 | 0.00 | 0.00 | 58 | 1006.4 |
| 20260505060759 | 66 | 235 | 1.0 | 9.0 | 0.00 | 0.00 | 0.00 | 58 | 1006.3 |
| 20260505060700 | 66 | 191 | 3.0 | 9.0 | 0.00 | 0.00 | 0.00 | 58 | 1006.4 |
| 20260505060600 | 66 | 218 | 4.0 | 9.0 | 0.00 | 0.00 | 0.00 | 58 | 1006.3 |
| 20260505060459 | 66 | 187 | 3.0 | 9.0 | 0.00 | 0.00 | 0.00 | 58 | 1006.4 |
| 20260505060300 | 66 | 258 | 2.0 | 10.0 | 0.00 | 0.00 | 0.00 | 59 | 1006.3 |
| 20260505060159 | 66 | 186 | 1.0 | 10.0 | 0.00 | 0.00 | 0.00 | 58 | 1006.2 |
| 20260505060059 | 66 | 232 | 1.0 | 10.0 | 0.00 | 0.00 | 0.00 | 58 | 1006.2 |
| 20260505055958 | 66 | 138 | 1.0 | 10.0 | 0.00 | 0.00 | 0.00 | 58 | 1006.2 |
| 20260505055858 | 66 | 207 | 5.0 | 10.0 | 0.00 | 0.00 | 0.00 | 58 | 1006.2 |
| 20260505055757 | 66 | 37 | 1.0 | 10.0 | 0.00 | 0.00 | 0.00 | 59 | 1006.2 |
| 20260505055657 | 66 | 209 | 1.0 | 10.0 | 0.00 | 0.00 | 0.00 | 59 | 1006.2 |
| 20260505055557 | 66 | 138 | 3.0 | 10.0 | 0.00 | 0.00 | 0.00 | 58 | 1006.1 |
| 20260505055458 | 66 | 247 | 3.0 | 10.0 | 0.00 | 0.00 | 0.00 | 58 | 1006.0 |
| 20260505055359 | 66 | 252 | 0.0 | 10.0 | 0.00 | 0.00 | 0.00 | 59 | 1006.1 |
| 20260505055200 | 66 | 225 | 5.0 | 10.0 | 0.00 | 0.00 | 0.00 | 58 | 1006.1 |
| 20260505055058 | 66 | 189 | 2.0 | 11.0 | 0.00 | 0.00 | 0.00 | 58 | 1006.1 |
| 20260505054958 | 66 | 188 | 3.0 | 11.0 | 0.00 | 0.00 | 0.00 | 58 | 1006.0 |
| 20260505054659 | 66 | 292 | 0.0 | 11.0 | 0.00 | 0.00 | 0.00 | 58 | 1006.0 |
| 20260505054558 | 66 | 209 | 3.0 | 11.0 | 0.00 | 0.00 | 0.00 | 58 | 1006.0 |
| 20260505054457 | 66 | 101 | 3.0 | 11.0 | 0.00 | 0.00 | 0.00 | 59 | 1006.0 |
| 20260505054358 | 66 | 275 | 1.0 | 8.0 | 0.00 | 0.00 | 0.00 | 58 | 1006.0 |
| 20260505054259 | 66 | 248 | 3.0 | 8.0 | 0.00 | 0.00 | 0.00 | 58 | 1006.0 |
| 20260505054157 | 66 | 216 | 3.0 | 8.0 | 0.00 | 0.00 | 0.00 | 59 | 1006.0 |
| 20260505054058 | 66 | 224 | 2.0 | 8.0 | 0.00 | 0.00 | 0.00 | 58 | 1006.0 |
| 20260505053958 | 66 | 223 | 8.0 | 9.0 | 0.00 | 0.00 | 0.00 | 58 | 1006.0 |
| 20260505053857 | 66 | 157 | 0.0 | 9.0 | 0.00 | 0.00 | 0.00 | 58 | 1005.9 |
| 20260505053657 | 66 | 277 | 0.0 | 9.0 | 0.00 | 0.00 | 0.00 | 58 | 1006.0 |
| 20260505053557 | 66 | 190 | 2.0 | 10.0 | 0.00 | 0.00 | 0.00 | 58 | 1006.0 |
| 20260505053500 | 66 | 203 | 3.0 | 10.0 | 0.00 | 0.00 | 0.00 | 58 | 1006.0 |
| 20260505053357 | 66 | 179 | 3.0 | 10.0 | 0.00 | 0.00 | 0.00 | 58 | 1006.0 |
| 20260505053258 | 66 | 90 | 1.0 | 10.0 | 0.00 | 0.00 | 0.00 | 58 | 1006.0 |
| 20260505053158 | 66 | 163 | 0.0 | 10.0 | 0.00 | 0.00 | 0.00 | 58 | 1006.0 |
| 20260505053057 | 66 | 152 | 1.0 | 10.0 | 0.00 | 0.00 | 0.00 | 58 | 1005.9 |
| 20260505052958 | 66 | 213 | 4.0 | 10.0 | 0.00 | 0.00 | 0.00 | 58 | 1006.0 |
| 20260505052857 | 66 | 217 | 3.0 | 10.0 | 0.00 | 0.00 | 0.00 | 58 | 1006.0 |
| 20260505052758 | 66 | 137 | 3.0 | 12.0 | 0.00 | 0.00 | 0.00 | 58 | 1006.0 |
| 20260505052658 | 66 | 192 | 0.0 | 8.0 | 0.00 | 0.00 | 0.00 | 58 | 1005.9 |
| 20260505052559 | 66 | 265 | 3.0 | 8.0 | 0.00 | 0.00 | 0.00 | 59 | 1005.9 |
| 20260505052459 | 66 | 226 | 2.0 | 8.0 | 0.00 | 0.00 | 0.00 | 58 | 1006.0 |
| 20260505052358 | 66 | 254 | 1.0 | 8.0 | 0.00 | 0.00 | 0.00 | 58 | 1006.0 |
| 20260505052257 | 66 | 141 | 0.0 | 8.0 | 0.00 | 0.00 | 0.00 | 58 | 1006.0 |
| 20260505052159 | 67 | 175 | 2.0 | 9.0 | 0.00 | 0.00 | 0.00 | 58 | 1005.9 |
| 20260505051958 | 67 | 67 | 0.0 | 9.0 | 0.00 | 0.00 | 0.00 | 58 | 1006.0 |
| 20260505051758 | 67 | 159 | 0.0 | 9.0 | 0.00 | 0.00 | 0.00 | 58 | 1006.0 |
| 20260505051658 | 67 | 217 | 0.0 | 9.0 | 0.00 | 0.00 | 0.00 | 58 | 1006.0 |
| 20260505051557 | 67 | 192 | 3.0 | 9.0 | 0.00 | 0.00 | 0.00 | 58 | 1006.0 |
| 20260505051459 | 67 | 152 | 2.0 | 9.0 | 0.00 | 0.00 | 0.00 | 57 | 1006.0 |
| 20260505051359 | 67 | 236 | 2.0 | 10.0 | 0.00 | 0.00 | 0.00 | 57 | 1006.0 |
| 20260505051159 | 67 | 207 | 3.0 | 9.0 | 0.00 | 0.00 | 0.00 | 57 | 1006.0 |
| 20260505051059 | 67 | 121 | 3.0 | 9.0 | 0.00 | 0.00 | 0.00 | 58 | 1006.0 |
| 20260505050757 | 67 | 181 | 2.0 | 9.0 | 0.00 | 0.00 | 0.00 | 57 | 1006.1 |
| 20260505050701 | 67 | 300 | 8.0 | 9.0 | 0.00 | 0.00 | 0.00 | 57 | 1006.1 |
| 20260505050357 | 67 | 348 | 1.0 | 9.0 | 0.00 | 0.00 | 0.00 | 57 | 1006.1 |
| 20260505050258 | 67 | 221 | 4.0 | 9.0 | 0.00 | 0.00 | 0.00 | 57 | 1006.0 |
| 20260505050158 | 67 | 209 | 2.0 | 9.0 | 0.00 | 0.00 | 0.00 | 57 | 1006.1 |
| 20260505041702 | 67 | 167 | 5.0 | 11.0 | 0.00 | 0.00 | 0.00 | 58 | 1006.6 |
| 20260505041602 | 67 | 221 | 1.0 | 11.0 | 0.00 | 0.00 | 0.00 | 58 | 1006.6 |
| 20260505041501 | 67 | 346 | 0.0 | 11.0 | 0.00 | 0.00 | 0.00 | 58 | 1006.6 |
| 20260505041301 | 67 | 104 | 3.0 | 11.0 | 0.00 | 0.00 | 0.00 | 58 | 1006.6 |
| 20260505041203 | 67 | 202 | 2.0 | 11.0 | 0.00 | 0.00 | 0.00 | 58 | 1006.6 |
| 20260505041103 | 67 | 182 | 3.0 | 11.0 | 0.00 | 0.00 | 0.00 | 58 | 1006.6 |
| 20260505041002 | 67 | 220 | 0.0 | 8.0 | 0.00 | 0.00 | 0.00 | 58 | 1006.6 |
| 20260505040903 | 67 | 170 | 2.0 | 9.0 | 0.00 | 0.00 | 0.00 | 58 | 1006.6 |
| 20260505040802 | 67 | 158 | 1.0 | 9.0 | 0.00 | 0.00 | 0.00 | 58 | 1006.5 |
| 20260505040702 | 67 | 200 | 2.0 | 9.0 | 0.00 | 0.00 | 0.00 | 58 | 1006.6 |
| 20260505040303 | 68 | 299 | 5.0 | 9.0 | 0.00 | 0.00 | 0.00 | 58 | 1006.6 |
| 20260505040201 | 68 | 275 | 1.0 | 9.0 | 0.00 | 0.00 | 0.00 | 58 | 1006.6 |
| 20260505040001 | 67 | 198 | 0.0 | 10.0 | 0.00 | 0.00 | 0.00 | 58 | 1006.8 |
| 20260505035901 | 67 | 236 | 0.0 | 10.0 | 0.00 | 0.00 | 0.00 | 58 | 1006.7 |
| 20260505035800 | 67 | 205 | 3.0 | 10.0 | 0.00 | 0.00 | 0.00 | 58 | 1006.7 |
| 20260505035701 | 67 | 224 | 0.0 | 10.0 | 0.00 | 0.00 | 0.00 | 58 | 1006.7 |
| 20260505035602 | 68 | 193 | 4.0 | 10.0 | 0.00 | 0.00 | 0.00 | 58 | 1006.7 |
| 20260505035401 | 67 | 197 | 2.0 | 10.0 | 0.00 | 0.00 | 0.00 | 58 | 1006.8 |
| 20260505035301 | 67 | 169 | 1.0 | 10.0 | 0.00 | 0.00 | 0.00 | 58 | 1006.7 |
| 20260505035101 | 67 | 184 | 9.0 | 9.0 | 0.00 | 0.00 | 0.00 | 59 | 1006.8 |
| 20260505035001 | 67 | 189 | 1.0 | 8.0 | 0.00 | 0.00 | 0.00 | 58 | 1006.7 |
| 20260505034901 | 67 | 284 | 1.0 | 8.0 | 0.00 | 0.00 | 0.00 | 59 | 1006.7 |
| 20260505034701 | 67 | 190 | 0.0 | 8.0 | 0.00 | 0.00 | 0.00 | 59 | 1006.8 |
| 20260505034602 | 67 | 200 | 3.0 | 8.0 | 0.00 | 0.00 | 0.00 | 58 | 1006.7 |
| 20260505034500 | 67 | 230 | 1.0 | 8.0 | 0.00 | 0.00 | 0.00 | 58 | 1006.7 |
| 20260505034404 | 67 | 209 | 4.0 | 8.0 | 0.00 | 0.00 | 0.00 | 59 | 1006.6 |
| 20260505034300 | 67 | 276 | 1.0 | 8.0 | 0.00 | 0.00 | 0.00 | 59 | 1006.7 |
| 20260505034202 | 67 | 250 | 1.0 | 8.0 | 0.00 | 0.00 | 0.00 | 59 | 1006.6 |
| 20260505034101 | 67 | 311 | 3.0 | 8.0 | 0.00 | 0.00 | 0.00 | 58 | 1006.7 |
| 20260505034000 | 67 | 207 | 2.0 | 8.0 | 0.00 | 0.00 | 0.00 | 58 | 1006.7 |
| 20260505033800 | 67 | 220 | 2.0 | 6.0 | 0.00 | 0.00 | 0.00 | 59 | 1006.6 |
| 20260505033600 | 67 | 171 | 1.0 | 6.0 | 0.00 | 0.00 | 0.00 | 58 | 1006.6 |
| 20260505033500 | 67 | 223 | 1.0 | 6.0 | 0.00 | 0.00 | 0.00 | 59 | 1006.6 |
| 20260505033403 | 67 | 259 | 2.0 | 6.0 | 0.00 | 0.00 | 0.00 | 58 | 1006.6 |
| 20260505033301 | 67 | 215 | 2.0 | 6.0 | 0.00 | 0.00 | 0.00 | 58 | 1006.6 |
| 20260505033202 | 67 | 187 | 5.0 | 8.0 | 0.00 | 0.00 | 0.00 | 58 | 1006.7 |
| 20260505033103 | 67 | 162 | 0.0 | 8.0 | 0.00 | 0.00 | 0.00 | 59 | 1006.7 |
| 20260505033001 | 68 | 238 | 0.0 | 8.0 | 0.00 | 0.00 | 0.00 | 58 | 1006.7 |
| 20260505032900 | 68 | 217 | 3.0 | 8.0 | 0.00 | 0.00 | 0.00 | 58 | 1006.7 |
| 20260505032800 | 68 | 209 | 2.0 | 8.0 | 0.00 | 0.00 | 0.00 | 58 | 1006.7 |
| 20260505032700 | 68 | 213 | 2.0 | 8.0 | 0.00 | 0.00 | 0.00 | 58 | 1006.6 |
| 20260505032602 | 68 | 234 | 4.0 | 8.0 | 0.00 | 0.00 | 0.00 | 58 | 1006.6 |
| 20260505032500 | 68 | 221 | 2.0 | 8.0 | 0.00 | 0.00 | 0.00 | 58 | 1006.6 |
| 20260505032401 | 68 | 182 | 1.0 | 8.0 | 0.00 | 0.00 | 0.00 | 58 | 1006.6 |
| 20260505032304 | 68 | 207 | 2.0 | 6.0 | 0.00 | 0.00 | 0.00 | 58 | 1006.7 |
| 20260505032201 | 68 | 219 | 4.0 | 6.0 | 0.00 | 0.00 | 0.00 | 58 | 1006.7 |
| 20260505032101 | 68 | 317 | 0.0 | 6.0 | 0.00 | 0.00 | 0.00 | 58 | 1006.6 |
| 20260505032000 | 68 | 326 | 2.0 | 6.0 | 0.00 | 0.00 | 0.00 | 59 | 1006.7 |
| 20260505031901 | 68 | 325 | 0.0 | 6.0 | 0.00 | 0.00 | 0.00 | 58 | 1006.7 |
| 20260505031801 | 68 | 198 | 0.0 | 6.0 | 0.00 | 0.00 | 0.00 | 58 | 1006.7 |
| 20260505031701 | 68 | 269 | 0.0 | 6.0 | 0.00 | 0.00 | 0.00 | 58 | 1006.6 |
| 20260505031601 | 68 | 186 | 0.0 | 6.0 | 0.00 | 0.00 | 0.00 | 58 | 1006.7 |
| 20260505031501 | 68 | 188 | 1.0 | 6.0 | 0.00 | 0.00 | 0.00 | 58 | 1006.7 |
| 20260505031402 | 68 | 204 | 3.0 | 6.0 | 0.00 | 0.00 | 0.00 | 58 | 1006.6 |
| 20260505031300 | 68 | 322 | 2.0 | 6.0 | 0.00 | 0.00 | 0.00 | 58 | 1006.6 |
| 20260505031201 | 68 | 244 | 0.0 | 6.0 | 0.00 | 0.00 | 0.00 | 58 | 1006.6 |
| 20260505031101 | 68 | 225 | 3.0 | 6.0 | 0.00 | 0.00 | 0.00 | 58 | 1006.7 |
| 20260505031000 | 68 | 212 | 1.0 | 6.0 | 0.00 | 0.00 | 0.00 | 59 | 1006.7 |
| 20260505030900 | 68 | 234 | 0.0 | 8.0 | 0.00 | 0.00 | 0.00 | 58 | 1006.6 |
| 20260505030802 | 68 | 217 | 2.0 | 8.0 | 0.00 | 0.00 | 0.00 | 59 | 1006.6 |
| 20260505030700 | 68 | 211 | 3.0 | 8.0 | 0.00 | 0.00 | 0.00 | 58 | 1006.6 |
| 20260505030601 | 68 | 5 | 1.0 | 8.0 | 0.00 | 0.00 | 0.00 | 59 | 1006.6 |
| 20260505030501 | 68 | 235 | 1.0 | 8.0 | 0.00 | 0.00 | 0.00 | 58 | 1006.6 |
| 20260505030401 | 68 | 248 | 2.0 | 8.0 | 0.00 | 0.00 | 0.00 | 58 | 1006.6 |
| 20260505030302 | 68 | 235 | 1.0 | 8.0 | 0.00 | 0.00 | 0.00 | 59 | 1006.6 |
| 20260505030200 | 68 | 213 | 2.0 | 8.0 | 0.00 | 0.00 | 0.00 | 59 | 1006.6 |
| 20260505030101 | 68 | 173 | 0.0 | 8.0 | 0.00 | 0.00 | 0.00 | 58 | 1006.5 |
| 20260505025901 | 68 | 195 | 5.0 | 6.0 | 0.00 | 0.00 | 0.00 | 59 | 1006.4 |
| 20260505025703 | 68 | 159 | 0.0 | 6.0 | 0.00 | 0.00 | 0.00 | 58 | 1006.4 |
| 20260505025602 | 68 | 181 | 1.0 | 6.0 | 0.00 | 0.00 | 0.00 | 59 | 1006.4 |
| 20260505025501 | 68 | 138 | 2.0 | 6.0 | 0.00 | 0.00 | 0.00 | 58 | 1006.4 |
| 20260505025401 | 68 | 131 | 2.0 | 6.0 | 0.00 | 0.00 | 0.00 | 58 | 1006.4 |
| 20260505025301 | 68 | 167 | 3.0 | 5.0 | 0.00 | 0.00 | 0.00 | 59 | 1006.4 |
| 20260505025201 | 68 | 219 | 1.0 | 7.0 | 0.00 | 0.00 | 0.00 | 58 | 1006.3 |
| 20260505025102 | 68 | 269 | 0.0 | 7.0 | 0.00 | 0.00 | 0.00 | 59 | 1006.3 |
| 20260505025002 | 68 | 198 | 1.0 | 7.0 | 0.00 | 0.00 | 0.00 | 58 | 1006.3 |
| 20260505024801 | 68 | 182 | 0.0 | 7.0 | 0.00 | 0.00 | 0.00 | 58 | 1006.3 |
| 20260505024703 | 68 | 194 | 2.0 | 7.0 | 0.00 | 0.00 | 0.00 | 58 | 1006.3 |
| 20260505024601 | 68 | 174 | 2.0 | 7.0 | 0.00 | 0.00 | 0.00 | 58 | 1006.3 |
| 20260505024502 | 68 | 226 | 4.0 | 7.0 | 0.00 | 0.00 | 0.00 | 58 | 1006.3 |
| 20260505024400 | 68 | 95 | 1.0 | 7.0 | 0.00 | 0.00 | 0.00 | 58 | 1006.3 |
| 20260505024301 | 68 | 169 | 4.0 | 7.0 | 0.00 | 0.00 | 0.00 | 58 | 1006.3 |
| 20260505024201 | 68 | 342 | 0.0 | 5.0 | 0.00 | 0.00 | 0.00 | 59 | 1006.3 |
| 20260505024102 | 68 | 349 | 2.0 | 5.0 | 0.00 | 0.00 | 0.00 | 59 | 1006.3 |
| 20260505023902 | 68 | 215 | 0.0 | 5.0 | 0.00 | 0.00 | 0.00 | 59 | 1006.2 |
| 20260505023802 | 68 | 215 | 2.0 | 6.0 | 0.00 | 0.00 | 0.00 | 58 | 1006.1 |
| 20260505023702 | 68 | 163 | 0.0 | 6.0 | 0.00 | 0.00 | 0.00 | 58 | 1006.1 |
| 20260505023603 | 68 | 76 | 2.0 | 6.0 | 0.00 | 0.00 | 0.00 | 58 | 1006.2 |
| 20260505023402 | 68 | 145 | 1.0 | 9.0 | 0.00 | 0.00 | 0.00 | 58 | 1006.2 |
| 20260505023302 | 68 | 271 | 0.0 | 9.0 | 0.00 | 0.00 | 0.00 | 58 | 1006.2 |
| 20260505023202 | 68 | 211 | 1.0 | 9.0 | 0.00 | 0.00 | 0.00 | 58 | 1006.3 |
| 20260505023102 | 68 | 254 | 2.0 | 9.0 | 0.00 | 0.00 | 0.00 | 58 | 1006.2 |
| 20260505023004 | 68 | 208 | 0.0 | 9.0 | 0.00 | 0.00 | 0.00 | 58 | 1006.3 |
| 20260505022802 | 68 | 232 | 1.0 | 9.0 | 0.00 | 0.00 | 0.00 | 58 | 1006.1 |
| 20260505022703 | 68 | 210 | 3.0 | 9.0 | 0.00 | 0.00 | 0.00 | 58 | 1006.2 |
| 20260505022601 | 68 | 153 | 2.0 | 10.0 | 0.00 | 0.00 | 0.00 | 58 | 1006.1 |
| 20260505022402 | 68 | 265 | 1.0 | 5.0 | 0.00 | 0.00 | 0.00 | 58 | 1006.2 |
| 20260505022301 | 68 | 224 | 2.0 | 5.0 | 0.00 | 0.00 | 0.00 | 58 | 1006.1 |
| 20260505022201 | 68 | 224 | 0.0 | 5.0 | 0.00 | 0.00 | 0.00 | 58 | 1006.1 |
| 20260505022002 | 68 | 182 | 0.0 | 5.0 | 0.00 | 0.00 | 0.00 | 58 | 1006.1 |
| 20260505021801 | 68 | 242 | 0.0 | 6.0 | 0.00 | 0.00 | 0.00 | 58 | 1006.1 |
| 20260505021703 | 68 | 211 | 0.0 | 6.0 | 0.00 | 0.00 | 0.00 | 58 | 1006.0 |
| 20260505021601 | 68 | 202 | 1.0 | 6.0 | 0.00 | 0.00 | 0.00 | 58 | 1006.0 |
| 20260505021503 | 68 | 229 | 3.0 | 6.0 | 0.00 | 0.00 | 0.00 | 58 | 1006.0 |
| 20260505021401 | 68 | 205 | 1.0 | 6.0 | 0.00 | 0.00 | 0.00 | 58 | 1006.1 |
| 20260505021300 | 68 | 236 | 2.0 | 6.0 | 0.00 | 0.00 | 0.00 | 58 | 1005.9 |
| 20260505021202 | 68 | 292 | 1.0 | 6.0 | 0.00 | 0.00 | 0.00 | 58 | 1006.0 |
| 20260505021101 | 68 | 120 | 1.0 | 6.0 | 0.00 | 0.00 | 0.00 | 58 | 1006.0 |
| 20260505021000 | 68 | 180 | 5.0 | 7.0 | 0.00 | 0.00 | 0.00 | 58 | 1005.9 |
| 20260505020902 | 68 | 195 | 0.0 | 6.0 | 0.00 | 0.00 | 0.00 | 58 | 1005.9 |
| 20260505020801 | 68 | 192 | 0.0 | 6.0 | 0.00 | 0.00 | 0.00 | 58 | 1005.9 |
| 20260505020603 | 68 | 98 | 6.0 | 6.0 | 0.00 | 0.00 | 0.00 | 58 | 1005.9 |
| 20260505020401 | 69 | 321 | 2.0 | 4.0 | 0.00 | 0.00 | 0.00 | 58 | 1006.0 |
| 20260505020301 | 69 | 355 | 0.0 | 4.0 | 0.00 | 0.00 | 0.00 | 58 | 1005.9 |
| 20260505020201 | 69 | 355 | 0.0 | 4.0 | 0.00 | 0.00 | 0.00 | 58 | 1005.9 |
| 20260505020004 | 69 | 252 | 0.0 | 4.0 | 0.00 | 0.00 | 0.00 | 58 | 1005.9 |
| 20260505015801 | 69 | 207 | 2.0 | 4.0 | 0.00 | 0.00 | 0.00 | 58 | 1005.7 |
| 20260505015701 | 69 | 173 | 3.0 | 4.0 | 0.00 | 0.00 | 0.00 | 57 | 1005.7 |
| 20260505015601 | 69 | 206 | 0.0 | 4.0 | 0.00 | 0.00 | 0.00 | 57 | 1005.7 |
| 20260505015502 | 69 | 215 | 0.0 | 4.0 | 0.00 | 0.00 | 0.00 | 58 | 1005.7 |
| 20260505015401 | 69 | 190 | 4.0 | 4.0 | 0.00 | 0.00 | 0.00 | 58 | 1005.6 |
| 20260505015206 | 69 | 236 | 0.0 | 4.0 | 0.00 | 0.00 | 0.00 | 57 | 1005.6 |
| 20260505015101 | 69 | 224 | 2.0 | 4.0 | 0.00 | 0.00 | 0.00 | 57 | 1005.6 |
| 20260505015001 | 69 | 148 | 0.0 | 3.0 | 0.00 | 0.00 | 0.00 | 57 | 1005.6 |
| 20260505014901 | 69 | 74 | 0.0 | 3.0 | 0.00 | 0.00 | 0.00 | 57 | 1005.5 |
| 20260505014801 | 69 | 192 | 0.0 | 3.0 | 0.00 | 0.00 | 0.00 | 57 | 1005.5 |
| 20260505014703 | 69 | 192 | 0.0 | 5.0 | 0.00 | 0.00 | 0.00 | 57 | 1005.5 |
| 20260505014604 | 69 | 238 | 0.0 | 5.0 | 0.00 | 0.00 | 0.00 | 57 | 1005.5 |
| 20260505014501 | 69 | 85 | 0.0 | 5.0 | 0.00 | 0.00 | 0.00 | 57 | 1005.5 |
| 20260505014402 | 69 | 108 | 0.0 | 5.0 | 0.00 | 0.00 | 0.00 | 58 | 1005.5 |
| 20260505014301 | 69 | 107 | 2.0 | 5.0 | 0.00 | 0.00 | 0.00 | 57 | 1005.5 |
| 20260505014204 | 69 | 180 | 0.0 | 5.0 | 0.00 | 0.00 | 0.00 | 58 | 1005.5 |
| 20260505014101 | 69 | 171 | 0.0 | 5.0 | 0.00 | 0.00 | 0.00 | 57 | 1005.6 |
| 20260505014002 | 69 | 172 | 0.0 | 5.0 | 0.00 | 0.00 | 0.00 | 57 | 1005.5 |
| 20260505013901 | 69 | 231 | 3.0 | 5.0 | 0.00 | 0.00 | 0.00 | 57 | 1005.5 |
| 20260505013802 | 69 | 179 | 0.0 | 7.0 | 0.00 | 0.00 | 0.00 | 57 | 1005.6 |
| 20260505013702 | 69 | 150 | 0.0 | 7.0 | 0.00 | 0.00 | 0.00 | 57 | 1005.6 |
| 20260505013600 | 69 | 169 | 5.0 | 7.0 | 0.00 | 0.00 | 0.00 | 57 | 1005.6 |
| 20260505013501 | 69 | 163 | 1.0 | 7.0 | 0.00 | 0.00 | 0.00 | 58 | 1005.6 |
| 20260505013402 | 69 | 201 | 2.0 | 7.0 | 0.00 | 0.00 | 0.00 | 57 | 1005.6 |
| 20260505013300 | 69 | 158 | 0.0 | 7.0 | 0.00 | 0.00 | 0.00 | 58 | 1005.5 |
| 20260505013104 | 69 | 155 | 0.0 | 7.0 | 0.00 | 0.00 | 0.00 | 58 | 1005.5 |
| 20260505013002 | 69 | 291 | 1.0 | 7.0 | 0.00 | 0.00 | 0.00 | 58 | 1005.4 |
| 20260505012902 | 69 | 323 | 4.0 | 6.0 | 0.00 | 0.00 | 0.00 | 58 | 1005.5 |
| 20260505012802 | 69 | 349 | 2.0 | 6.0 | 0.00 | 0.00 | 0.00 | 58 | 1005.5 |
| 20260505012603 | 69 | 154 | 0.0 | 6.0 | 0.00 | 0.00 | 0.00 | 58 | 1005.5 |
| 20260505012502 | 69 | 132 | 3.0 | 6.0 | 0.00 | 0.00 | 0.00 | 58 | 1005.5 |
| 20260505012401 | 69 | 170 | 0.0 | 2.0 | 0.00 | 0.00 | 0.00 | 58 | 1005.4 |
| 20260505012304 | 69 | 121 | 0.0 | 2.0 | 0.00 | 0.00 | 0.00 | 58 | 1005.5 |
| 20260505012201 | 69 | 119 | 0.0 | 2.0 | 0.00 | 0.00 | 0.00 | 58 | 1005.5 |
| 20260505012101 | 69 | 140 | 0.0 | 2.0 | 0.00 | 0.00 | 0.00 | 57 | 1005.4 |
| 20260505012001 | 69 | 193 | 0.0 | 2.0 | 0.00 | 0.00 | 0.00 | 57 | 1005.4 |
| 20260505011904 | 69 | 192 | 0.0 | 1.0 | 0.00 | 0.00 | 0.00 | 58 | 1005.4 |
| 20260505011801 | 69 | 193 | 0.0 | 1.0 | 0.00 | 0.00 | 0.00 | 57 | 1005.5 |
| 20260505011702 | 69 | 193 | 0.0 | 2.0 | 0.00 | 0.00 | 0.00 | 57 | 1005.5 |
| 20260505011602 | 69 | 167 | 0.0 | 2.0 | 0.00 | 0.00 | 0.00 | 57 | 1005.5 |
| 20260505011506 | 69 | 71 | 0.0 | 2.0 | 0.00 | 0.00 | 0.00 | 57 | 1005.4 |
| 20260505011401 | 70 | 115 | 0.0 | 2.0 | 0.00 | 0.00 | 0.00 | 57 | 1005.5 |
| 20260505011302 | 70 | 115 | 0.0 | 2.0 | 0.00 | 0.00 | 0.00 | 57 | 1005.4 |
| 20260505011101 | 70 | 130 | 1.0 | 2.0 | 0.00 | 0.00 | 0.00 | 57 | 1005.4 |
| 20260505011003 | 70 | 269 | 0.0 | 2.0 | 0.00 | 0.00 | 0.00 | 57 | 1005.4 |
| 20260505010901 | 70 | 82 | 0.0 | 2.0 | 0.00 | 0.00 | 0.00 | 57 | 1005.4 |
| 20260505010802 | 70 | 107 | 2.0 | 2.0 | 0.00 | 0.00 | 0.00 | 57 | 1005.4 |
| 20260505010701 | 70 | 227 | 0.0 | 5.0 | 0.00 | 0.00 | 0.00 | 57 | 1005.4 |
| 20260505010503 | 70 | 296 | 0.0 | 5.0 | 0.00 | 0.00 | 0.00 | 56 | 1005.4 |
| 20260505010402 | 70 | 209 | 0.0 | 5.0 | 0.00 | 0.00 | 0.00 | 56 | 1005.4 |
| 20260505010302 | 70 | 209 | 0.0 | 5.0 | 0.00 | 0.00 | 0.00 | 56 | 1005.4 |
| 20260505010201 | 70 | 209 | 0.0 | 5.0 | 0.00 | 0.00 | 0.00 | 56 | 1005.4 |
| 20260505010005 | 70 | 196 | 0.0 | 5.0 | 0.00 | 0.00 | 0.00 | 56 | 1005.4 |
| 20260505005903 | 70 | 153 | 2.0 | 5.0 | 0.00 | 0.00 | 0.00 | 56 | 1005.3 |
| 20260505005801 | 70 | 123 | 1.0 | 5.0 | 0.00 | 0.00 | 0.00 | 56 | 1005.3 |
| 20260505005701 | 70 | 200 | 1.0 | 5.0 | 0.00 | 0.00 | 0.00 | 55 | 1005.3 |
| 20260505005601 | 70 | 217 | 2.0 | 7.0 | 0.00 | 0.00 | 0.00 | 56 | 1005.5 |
| 20260505005501 | 70 | 153 | 1.0 | 7.0 | 0.00 | 0.00 | 0.00 | 55 | 1005.4 |
| 20260505005402 | 70 | 217 | 2.0 | 7.0 | 0.00 | 0.00 | 0.00 | 56 | 1005.4 |
| 20260505005304 | 70 | 269 | 0.0 | 7.0 | 0.00 | 0.00 | 0.00 | 55 | 1005.4 |
| 20260505005101 | 70 | 173 | 0.0 | 7.0 | 0.00 | 0.00 | 0.00 | 56 | 1005.4 |
| 20260505005002 | 70 | 229 | 0.0 | 7.0 | 0.00 | 0.00 | 0.00 | 55 | 1005.4 |
| 20260505004905 | 71 | 214 | 1.0 | 7.0 | 0.00 | 0.00 | 0.00 | 55 | 1005.4 |
| 20260505004801 | 70 | 185 | 0.0 | 8.0 | 0.00 | 0.00 | 0.00 | 55 | 1005.4 |
| 20260505004701 | 71 | 277 | 0.0 | 8.0 | 0.00 | 0.00 | 0.00 | 56 | 1005.3 |
| 20260505004501 | 71 | 15 | 1.0 | 8.0 | 0.00 | 0.00 | 0.00 | 55 | 1005.4 |
| 20260505004301 | 71 | 211 | 6.0 | 6.0 | 0.00 | 0.00 | 0.00 | 55 | 1005.4 |
| 20260505004204 | 71 | 220 | 1.0 | 5.0 | 0.00 | 0.00 | 0.00 | 55 | 1005.4 |
| 20260505004103 | 71 | 165 | 1.0 | 5.0 | 0.00 | 0.00 | 0.00 | 55 | 1005.4 |
| 20260505004003 | 71 | 232 | 2.0 | 5.0 | 0.00 | 0.00 | 0.00 | 55 | 1005.4 |
| 20260505003902 | 71 | 280 | 2.0 | 5.0 | 0.00 | 0.00 | 0.00 | 55 | 1005.4 |
| 20260505003801 | 71 | 157 | 0.0 | 5.0 | 0.00 | 0.00 | 0.00 | 55 | 1005.3 |
| 20260505003602 | 71 | 157 | 0.0 | 5.0 | 0.00 | 0.00 | 0.00 | 55 | 1005.2 |
| 20260505003500 | 71 | 309 | 1.0 | 5.0 | 0.00 | 0.00 | 0.00 | 55 | 1005.2 |
| 20260505003401 | 71 | 309 | 1.0 | 5.0 | 0.00 | 0.00 | 0.00 | 54 | 1005.3 |
| 20260505003301 | 71 | 136 | 2.0 | 5.0 | 0.00 | 0.00 | 0.00 | 55 | 1005.3 |
| 20260505003102 | 71 | 197 | 3.0 | 4.0 | 0.00 | 0.00 | 0.00 | 54 | 1005.2 |
| 20260505003001 | 71 | 168 | 1.0 | 4.0 | 0.00 | 0.00 | 0.00 | 55 | 1005.2 |
| 20260505002903 | 71 | 217 | 2.0 | 4.0 | 0.00 | 0.00 | 0.00 | 54 | 1005.2 |
| 20260505002701 | 71 | 105 | 1.0 | 4.0 | 0.00 | 0.00 | 0.00 | 54 | 1005.3 |
| 20260505002603 | 71 | 175 | 3.0 | 4.0 | 0.00 | 0.00 | 0.00 | 54 | 1005.3 |
| 20260505002503 | 71 | 202 | 4.0 | 5.0 | 0.00 | 0.00 | 0.00 | 54 | 1005.3 |
| 20260505002402 | 71 | 189 | 1.0 | 5.0 | 0.00 | 0.00 | 0.00 | 54 | 1005.3 |
| 20260505002301 | 71 | 218 | 2.0 | 5.0 | 0.00 | 0.00 | 0.00 | 54 | 1005.3 |
| 20260505002201 | 71 | 202 | 1.0 | 5.0 | 0.00 | 0.00 | 0.00 | 53 | 1005.4 |
| 20260505002100 | 71 | 138 | 2.0 | 5.0 | 0.00 | 0.00 | 0.00 | 53 | 1005.3 |
| 20260505002002 | 71 | 177 | 2.0 | 5.0 | 0.00 | 0.00 | 0.00 | 53 | 1005.3 |
| 20260505001802 | 71 | 9 | 0.0 | 5.0 | 0.00 | 0.00 | 0.00 | 53 | 1005.3 |
| 20260505001601 | 71 | 225 | 5.0 | 5.0 | 0.00 | 0.00 | 0.00 | 53 | 1005.3 |
| 20260505001502 | 71 | 188 | 2.0 | 5.0 | 0.00 | 0.00 | 0.00 | 53 | 1005.4 |
| 20260505001402 | 72 | 119 | 0.0 | 8.0 | 0.00 | 0.00 | 0.00 | 53 | 1005.4 |
| 20260505001202 | 72 | 144 | 2.0 | 8.0 | 0.00 | 0.00 | 0.00 | 53 | 1005.4 |
| 20260505000901 | 72 | 189 | 3.0 | 8.0 | 0.00 | 0.00 | 0.00 | 52 | 1005.4 |
| 20260505000803 | 72 | 248 | 3.0 | 8.0 | 0.00 | 0.00 | 0.00 | 52 | 1005.4 |
| 20260505000701 | 72 | 266 | 1.0 | 8.0 | 0.00 | 0.00 | 0.00 | 52 | 1005.4 |
| 20260505000501 | 72 | 225 | 3.0 | 8.0 | 0.00 | 0.00 | 0.00 | 52 | 1005.5 |
| 20260505000402 | 72 | 239 | 1.0 | 3.0 | 0.00 | 0.00 | 0.00 | 52 | 1005.5 |
| 20260505000303 | 72 | 260 | 1.0 | 3.0 | 0.00 | 0.00 | 0.00 | 52 | 1005.5 |
| 20260505000200 | 72 | 153 | 0.0 | 3.0 | 0.00 | 0.00 | 0.00 | 52 | 1005.5 |
| 20260504235602 | 72 | 224 | 0.0 | 6.0 | 0.00 | 0.00 | 0.00 | 51 | 1005.5 |
| 20260504235502 | 73 | 168 | 0.0 | 6.0 | 0.00 | 0.00 | 0.00 | 51 | 1005.6 |
| 20260504235400 | 73 | 121 | 1.0 | 6.0 | 0.00 | 0.00 | 0.00 | 51 | 1005.5 |
| 20260504235302 | 73 | 177 | 0.0 | 6.0 | 0.00 | 0.00 | 0.00 | 50 | 1005.5 |
| 20260504235201 | 73 | 175 | 3.0 | 6.0 | 0.00 | 0.00 | 0.00 | 50 | 1005.5 |
| 20260504235103 | 73 | 251 | 2.0 | 10.0 | 0.00 | 0.00 | 0.00 | 50 | 1005.6 |
| 20260504235002 | 73 | 216 | 1.0 | 10.0 | 0.00 | 0.00 | 0.00 | 50 | 1005.6 |
| 20260504234901 | 73 | 237 | 3.0 | 10.0 | 0.00 | 0.00 | 0.00 | 50 | 1005.6 |
| 20260504234800 | 73 | 207 | 0.0 | 10.0 | 0.00 | 0.00 | 0.00 | 50 | 1005.5 |
| 20260504234601 | 73 | 207 | 0.0 | 10.0 | 0.00 | 0.00 | 0.00 | 50 | 1005.5 |
| 20260504234501 | 73 | 206 | 0.0 | 10.0 | 0.00 | 0.00 | 0.00 | 50 | 1005.5 |
| 20260504234301 | 73 | 237 | 1.0 | 10.0 | 0.00 | 0.00 | 0.00 | 49 | 1005.5 |
| 20260504234100 | 73 | 193 | 0.0 | 4.0 | 0.00 | 0.00 | 0.00 | 49 | 1005.5 |
| 20260504233810 | 73 | 212 | 0.0 | 4.0 | 0.00 | 0.00 | 0.00 | 49 | 1005.7 |
| 20260504233702 | 73 | 159 | 0.0 | 4.0 | 0.00 | 0.00 | 0.00 | 49 | 1005.7 |
| 20260504233601 | 73 | 144 | 1.0 | 10.0 | 0.00 | 0.00 | 0.00 | 49 | 1005.6 |
| 20260504233500 | 73 | 237 | 0.0 | 10.0 | 0.00 | 0.00 | 0.00 | 49 | 1005.7 |
| 20260504233401 | 73 | 225 | 0.0 | 10.0 | 0.00 | 0.00 | 0.00 | 49 | 1005.7 |
| 20260504233302 | 73 | 188 | 1.0 | 10.0 | 0.00 | 0.00 | 0.00 | 48 | 1005.7 |
| 20260504233202 | 73 | 213 | 4.0 | 10.0 | 0.00 | 0.00 | 0.00 | 48 | 1005.7 |
| 20260504233003 | 73 | 176 | 0.0 | 10.0 | 0.00 | 0.00 | 0.00 | 48 | 1005.7 |
| 20260504232902 | 73 | 234 | 2.0 | 10.0 | 0.00 | 0.00 | 0.00 | 49 | 1005.7 |
| 20260504232802 | 73 | 180 | 1.0 | 10.0 | 0.00 | 0.00 | 0.00 | 48 | 1005.7 |
| 20260504232602 | 74 | 203 | 2.0 | 8.0 | 0.00 | 0.00 | 0.00 | 48 | 1005.8 |
| 20260504232502 | 74 | 224 | 3.0 | 8.0 | 0.00 | 0.00 | 0.00 | 47 | 1005.8 |
| 20260504232401 | 74 | 198 | 3.0 | 8.0 | 0.00 | 0.00 | 0.00 | 47 | 1005.7 |
| 20260504232304 | 74 | 236 | 2.0 | 10.0 | 0.00 | 0.00 | 0.00 | 47 | 1005.7 |
| 20260504232203 | 74 | 182 | 3.0 | 10.0 | 0.00 | 0.00 | 0.00 | 48 | 1005.8 |
| 20260504232101 | 74 | 205 | 3.0 | 10.0 | 0.00 | 0.00 | 0.00 | 47 | 1005.9 |
| 20260504231902 | 74 | 150 | 1.0 | 10.0 | 0.00 | 0.00 | 0.00 | 48 | 1005.9 |
| 20260504231801 | 74 | 68 | 2.0 | 10.0 | 0.00 | 0.00 | 0.00 | 47 | 1005.9 |
| 20260504231701 | 74 | 192 | 2.0 | 10.0 | 0.00 | 0.00 | 0.00 | 47 | 1005.9 |
| 20260504231603 | 74 | 198 | 0.0 | 10.0 | 0.00 | 0.00 | 0.00 | 47 | 1005.9 |
| 20260504231501 | 74 | 230 | 3.0 | 10.0 | 0.00 | 0.00 | 0.00 | 46 | 1005.9 |
| 20260504231401 | 74 | 159 | 7.0 | 10.0 | 0.00 | 0.00 | 0.00 | 47 | 1006.0 |
| 20260504231301 | 74 | 215 | 0.0 | 7.0 | 0.00 | 0.00 | 0.00 | 47 | 1006.0 |
| 20260504231202 | 74 | 144 | 4.0 | 7.0 | 0.00 | 0.00 | 0.00 | 47 | 1006.0 |
| 20260504231100 | 74 | 323 | 2.0 | 7.0 | 0.00 | 0.00 | 0.00 | 46 | 1006.0 |
| 20260504231000 | 74 | 211 | 2.0 | 7.0 | 0.00 | 0.00 | 0.00 | 46 | 1006.0 |
| 20260504230902 | 74 | 188 | 3.0 | 7.0 | 0.00 | 0.00 | 0.00 | 47 | 1006.0 |
| 20260504230800 | 74 | 241 | 0.0 | 10.0 | 0.00 | 0.00 | 0.00 | 47 | 1006.0 |
| 20260504230601 | 74 | 286 | 4.0 | 10.0 | 0.00 | 0.00 | 0.00 | 47 | 1006.1 |
| 20260504230500 | 74 | 172 | 2.0 | 10.0 | 0.00 | 0.00 | 0.00 | 47 | 1006.0 |
| 20260504230402 | 74 | 257 | 2.0 | 14.0 | 0.00 | 0.00 | 0.00 | 46 | 1006.0 |
| 20260504230301 | 74 | 202 | 4.0 | 14.0 | 0.00 | 0.00 | 0.00 | 46 | 1006.0 |
| 20260504230202 | 74 | 215 | 5.0 | 14.0 | 0.00 | 0.00 | 0.00 | 46 | 1006.1 |
| 20260504230101 | 74 | 242 | 1.0 | 14.0 | 0.00 | 0.00 | 0.00 | 46 | 1006.1 |
| 20260504230005 | 75 | 179 | 4.0 | 14.0 | 0.00 | 0.00 | 0.00 | 45 | 1006.1 |
| 20260504225901 | 75 | 194 | 9.0 | 14.0 | 0.00 | 0.00 | 0.00 | 46 | 1006.1 |
| 20260504225800 | 75 | 161 | 1.0 | 14.0 | 0.00 | 0.00 | 0.00 | 46 | 1006.0 |
| 20260504225601 | 75 | 177 | 5.0 | 14.0 | 0.00 | 0.00 | 0.00 | 45 | 1006.0 |
| 20260504225503 | 75 | 235 | 5.0 | 13.0 | 0.00 | 0.00 | 0.00 | 45 | 1006.0 |
| 20260504225401 | 75 | 190 | 9.0 | 10.0 | 0.00 | 0.00 | 0.00 | 45 | 1006.1 |
| 20260504225301 | 75 | 157 | 2.0 | 10.0 | 0.00 | 0.00 | 0.00 | 46 | 1006.1 |
| 20260504225203 | 75 | 192 | 2.0 | 10.0 | 0.00 | 0.00 | 0.00 | 46 | 1006.1 |
| 20260504225101 | 75 | 213 | 2.0 | 11.0 | 0.00 | 0.00 | 0.00 | 45 | 1006.0 |
| 20260504225001 | 75 | 245 | 0.0 | 11.0 | 0.00 | 0.00 | 0.00 | 45 | 1006.1 |
| 20260504224901 | 75 | 194 | 2.0 | 11.0 | 0.00 | 0.00 | 0.00 | 45 | 1006.0 |
| 20260504224703 | 75 | 211 | 3.0 | 11.0 | 0.00 | 0.00 | 0.00 | 46 | 1006.1 |
| 20260504224602 | 75 | 154 | 3.0 | 15.0 | 0.00 | 0.00 | 0.00 | 45 | 1006.1 |
| 20260504224502 | 75 | 209 | 1.0 | 17.0 | 0.00 | 0.00 | 0.00 | 45 | 1006.0 |
| 20260504224302 | 75 | 202 | 9.0 | 17.0 | 0.00 | 0.00 | 0.00 | 45 | 1006.0 |
| 20260504224201 | 75 | 263 | 3.0 | 17.0 | 0.00 | 0.00 | 0.00 | 46 | 1006.0 |
| 20260504224101 | 75 | 202 | 7.0 | 17.0 | 0.00 | 0.00 | 0.00 | 45 | 1006.0 |
| 20260504224002 | 75 | 167 | 5.0 | 17.0 | 0.00 | 0.00 | 0.00 | 44 | 1006.0 |
| 20260504223902 | 75 | 184 | 3.0 | 17.0 | 0.00 | 0.00 | 0.00 | 45 | 1006.0 |
| 20260504223801 | 75 | 113 | 8.0 | 17.0 | 0.00 | 0.00 | 0.00 | 45 | 1006.0 |
| 20260504223701 | 75 | 159 | 6.0 | 17.0 | 0.00 | 0.00 | 0.00 | 45 | 1006.0 |
| 20260504223603 | 75 | 97 | 6.0 | 13.0 | 0.00 | 0.00 | 0.00 | 46 | 1006.0 |
| 20260504223501 | 75 | 163 | 6.0 | 13.0 | 0.00 | 0.00 | 0.00 | 45 | 1006.0 |
| 20260504223401 | 75 | 190 | 2.0 | 13.0 | 0.00 | 0.00 | 0.00 | 45 | 1006.0 |
| 20260504223301 | 75 | 337 | 1.0 | 17.0 | 0.00 | 0.00 | 0.00 | 46 | 1006.1 |
| 20260504223202 | 75 | 313 | 4.0 | 17.0 | 0.00 | 0.00 | 0.00 | 45 | 1006.1 |
| 20260504223100 | 75 | 140 | 3.0 | 17.0 | 0.00 | 0.00 | 0.00 | 45 | 1006.1 |
| 20260504223002 | 75 | 212 | 7.0 | 17.0 | 0.00 | 0.00 | 0.00 | 45 | 1006.1 |
| 20260504222903 | 75 | 217 | 5.0 | 17.0 | 0.00 | 0.00 | 0.00 | 45 | 1006.1 |
| 20260504222701 | 75 | 190 | 4.0 | 20.0 | 0.00 | 0.00 | 0.00 | 45 | 1006.1 |
| 20260504222602 | 75 | 28 | 5.0 | 20.0 | 0.00 | 0.00 | 0.00 | 45 | 1006.1 |
| 20260504222501 | 75 | 217 | 10.0 | 20.0 | 0.00 | 0.00 | 0.00 | 44 | 1006.2 |
| 20260504222402 | 75 | 217 | 7.0 | 20.0 | 0.00 | 0.00 | 0.00 | 45 | 1006.2 |
| 20260504222301 | 75 | 323 | 6.0 | 20.0 | 0.00 | 0.00 | 0.00 | 45 | 1006.3 |
| 20260504222104 | 75 | 202 | 8.0 | 20.0 | 0.00 | 0.00 | 0.00 | 45 | 1006.2 |
| 20260504222003 | 75 | 228 | 4.0 | 20.0 | 0.00 | 0.00 | 0.00 | 44 | 1006.2 |
| 20260504221902 | 75 | 125 | 3.0 | 16.0 | 0.00 | 0.00 | 0.00 | 44 | 1006.2 |
| 20260504221800 | 75 | 185 | 7.0 | 16.0 | 0.00 | 0.00 | 0.00 | 45 | 1006.1 |
| 20260504221702 | 75 | 209 | 6.0 | 16.0 | 0.00 | 0.00 | 0.00 | 44 | 1006.1 |
| 20260504221602 | 75 | 188 | 3.0 | 16.0 | 0.00 | 0.00 | 0.00 | 44 | 1006.1 |
| 20260504221502 | 76 | 113 | 1.0 | 16.0 | 0.00 | 0.00 | 0.00 | 44 | 1006.1 |
| 20260504221401 | 76 | 181 | 8.0 | 16.0 | 0.00 | 0.00 | 0.00 | 44 | 1006.2 |
| 20260504221301 | 76 | 218 | 6.0 | 16.0 | 0.00 | 0.00 | 0.00 | 44 | 1006.2 |
| 20260504221201 | 76 | 223 | 5.0 | 14.0 | 0.00 | 0.00 | 0.00 | 45 | 1006.1 |
| 20260504221102 | 76 | 167 | 5.0 | 14.0 | 0.00 | 0.00 | 0.00 | 44 | 1006.1 |
| 20260504221004 | 76 | 104 | 3.0 | 14.0 | 0.00 | 0.00 | 0.00 | 44 | 1006.2 |
| 20260504220901 | 76 | 333 | 2.0 | 10.0 | 0.00 | 0.00 | 0.00 | 45 | 1006.2 |
| 20260504220803 | 76 | 225 | 6.0 | 10.0 | 0.00 | 0.00 | 0.00 | 46 | 1006.0 |
| 20260504220702 | 76 | 218 | 4.0 | 10.0 | 0.00 | 0.00 | 0.00 | 46 | 1006.0 |
| 20260504220601 | 76 | 183 | 2.0 | 10.0 | 0.00 | 0.00 | 0.00 | 46 | 1006.0 |
| 20260504220501 | 76 | 250 | 1.0 | 10.0 | 0.00 | 0.00 | 0.00 | 46 | 1006.0 |
| 20260504220401 | 76 | 196 | 3.0 | 10.0 | 0.00 | 0.00 | 0.00 | 45 | 1006.1 |
| 20260504220303 | 76 | 74 | 0.0 | 10.0 | 0.00 | 0.00 | 0.00 | 46 | 1006.0 |
| 20260504220203 | 76 | 219 | 2.0 | 10.0 | 0.00 | 0.00 | 0.00 | 45 | 1006.0 |
| 20260504220101 | 76 | 175 | 10.0 | 10.0 | 0.00 | 0.00 | 0.00 | 45 | 1006.0 |
| 20260504220004 | 76 | 251 | 2.0 | 10.0 | 0.00 | 0.00 | 0.00 | 45 | 1006.0 |
| 20260504215901 | 76 | 27 | 4.0 | 12.0 | 0.00 | 0.00 | 0.00 | 46 | 1006.0 |
| 20260504215801 | 76 | 22 | 3.0 | 12.0 | 0.00 | 0.00 | 0.00 | 47 | 1006.1 |
| 20260504215703 | 76 | 178 | 0.0 | 12.0 | 0.00 | 0.00 | 0.00 | 45 | 1006.1 |
| 20260504215602 | 76 | 171 | 5.0 | 13.0 | 0.00 | 0.00 | 0.00 | 46 | 1006.1 |
| 20260504215501 | 76 | 181 | 4.0 | 13.0 | 0.00 | 0.00 | 0.00 | 45 | 1006.2 |
| 20260504215402 | 76 | 186 | 4.0 | 13.0 | 0.00 | 0.00 | 0.00 | 47 | 1006.2 |
| 20260504215301 | 76 | 229 | 2.0 | 13.0 | 0.00 | 0.00 | 0.00 | 46 | 1006.1 |
| 20260504215202 | 76 | 302 | 7.0 | 13.0 | 0.00 | 0.00 | 0.00 | 47 | 1006.1 |
| 20260504215101 | 75 | 184 | 4.0 | 13.0 | 0.00 | 0.00 | 0.00 | 46 | 1006.1 |
| 20260504215001 | 75 | 189 | 6.0 | 13.0 | 0.00 | 0.00 | 0.00 | 46 | 1006.1 |
| 20260504214703 | 75 | 315 | 2.0 | 13.0 | 0.00 | 0.00 | 0.00 | 47 | 1006.1 |
| 20260504214601 | 75 | 154 | 8.0 | 15.0 | 0.00 | 0.00 | 0.00 | 49 | 1006.3 |
| 20260504214502 | 75 | 161 | 1.0 | 9.0 | 0.00 | 0.00 | 0.00 | 49 | 1006.3 |
| 20260504214402 | 75 | 239 | 2.0 | 9.0 | 0.00 | 0.00 | 0.00 | 49 | 1006.1 |
| 20260504214301 | 75 | 154 | 1.0 | 9.0 | 0.00 | 0.00 | 0.00 | 49 | 1006.1 |
| 20260504214102 | 75 | 180 | 2.0 | 9.0 | 0.00 | 0.00 | 0.00 | 49 | 1006.1 |
| 20260504214002 | 75 | 198 | 1.0 | 9.0 | 0.00 | 0.00 | 0.00 | 49 | 1006.1 |
| 20260504213904 | 75 | 151 | 6.0 | 9.0 | 0.00 | 0.00 | 0.00 | 50 | 1006.1 |
| 20260504213801 | 75 | 108 | 2.0 | 4.0 | 0.00 | 0.00 | 0.00 | 49 | 1006.2 |
| 20260504213701 | 75 | 198 | 2.0 | 4.0 | 0.00 | 0.00 | 0.00 | 50 | 1006.1 |
| 20260504213602 | 75 | 139 | 1.0 | 4.0 | 0.00 | 0.00 | 0.00 | 50 | 1006.1 |
| 20260504213501 | 75 | 202 | 0.0 | 2.0 | 0.00 | 0.00 | 0.00 | 51 | 1006.3 |
| 20260504213401 | 75 | 196 | 0.0 | 3.0 | 0.00 | 0.00 | 0.00 | 51 | 1006.2 |
| 20260504213301 | 75 | 186 | 0.0 | 3.0 | 0.00 | 0.00 | 0.00 | 50 | 1006.3 |
| 20260504213201 | 75 | 178 | 0.0 | 3.0 | 0.00 | 0.00 | 0.00 | 51 | 1006.2 |
| 20260504213002 | 75 | 163 | 0.0 | 3.0 | 0.00 | 0.00 | 0.00 | 51 | 1006.3 |
| 20260504212903 | 75 | 184 | 0.0 | 3.0 | 0.00 | 0.00 | 0.00 | 52 | 1006.3 |
| 20260504212801 | 75 | 148 | 0.0 | 3.0 | 0.00 | 0.00 | 0.00 | 50 | 1006.4 |
| 20260504212701 | 75 | 209 | 2.0 | 3.0 | 0.00 | 0.00 | 0.00 | 51 | 1006.4 |
| 20260504212603 | 75 | 217 | 1.0 | 5.0 | 0.00 | 0.00 | 0.00 | 51 | 1006.5 |
| 20260504212502 | 75 | 208 | 2.0 | 5.0 | 0.00 | 0.00 | 0.00 | 51 | 1006.4 |
| 20260504212203 | 75 | 132 | 0.0 | 5.0 | 0.00 | 0.00 | 0.00 | 52 | 1006.6 |
| 20260504212001 | 75 | 168 | 2.0 | 7.0 | 0.00 | 0.00 | 0.00 | 51 | 1006.7 |
| 20260504211902 | 75 | 217 | 1.0 | 7.0 | 0.00 | 0.00 | 0.00 | 50 | 1006.7 |
| 20260504211803 | 75 | 327 | 0.0 | 7.0 | 0.00 | 0.00 | 0.00 | 51 | 1006.7 |
| 20260504211701 | 75 | 207 | 1.0 | 7.0 | 0.00 | 0.00 | 0.00 | 50 | 1006.7 |
| 20260504211601 | 75 | 290 | 4.0 | 7.0 | 0.00 | 0.00 | 0.00 | 50 | 1006.7 |
| 20260504211504 | 75 | 202 | 3.0 | 7.0 | 0.00 | 0.00 | 0.00 | 49 | 1006.7 |
| 20260504211403 | 75 | 178 | 1.0 | 7.0 | 0.00 | 0.00 | 0.00 | 50 | 1006.7 |
| 20260504211301 | 75 | 159 | 2.0 | 7.0 | 0.00 | 0.00 | 0.00 | 49 | 1006.9 |
| 20260504211201 | 75 | 198 | 4.0 | 7.0 | 0.00 | 0.00 | 0.00 | 50 | 1007.0 |
| 20260504211002 | 75 | 173 | 0.0 | 5.0 | 0.00 | 0.00 | 0.00 | 49 | 1007.0 |
| 20260504210902 | 75 | 276 | 3.0 | 5.0 | 0.00 | 0.00 | 0.00 | 50 | 1006.9 |
| 20260504210801 | 75 | 310 | 1.0 | 5.0 | 0.00 | 0.00 | 0.00 | 51 | 1006.8 |
| 20260504210701 | 75 | 219 | 1.0 | 5.0 | 0.00 | 0.00 | 0.00 | 50 | 1006.7 |
| 20260504210603 | 75 | 300 | 0.0 | 5.0 | 0.00 | 0.00 | 0.00 | 49 | 1006.7 |
| 20260504210502 | 75 | 242 | 0.0 | 5.0 | 0.00 | 0.00 | 0.00 | 49 | 1006.7 |
| 20260504210301 | 76 | 196 | 3.0 | 5.0 | 0.00 | 0.00 | 0.00 | 49 | 1006.8 |
| 20260504210200 | 76 | 203 | 0.0 | 3.0 | 0.00 | 0.00 | 0.00 | 48 | 1006.8 |
| 20260504210101 | 76 | 250 | 0.0 | 3.0 | 0.00 | 0.00 | 0.00 | 48 | 1006.8 |
| 20260504210000 | 76 | 221 | 0.0 | 3.0 | 0.00 | 0.00 | 0.00 | 49 | 1006.9 |
| 20260504205901 | 76 | 153 | 0.0 | 5.0 | 0.00 | 0.00 | 0.00 | 48 | 1006.9 |
| 20260504205801 | 76 | 211 | 0.0 | 5.0 | 0.00 | 0.00 | 0.00 | 47 | 1007.0 |
| 20260504205702 | 76 | 200 | 0.0 | 8.0 | 0.00 | 0.00 | 0.00 | 48 | 1007.0 |
| 20260504205604 | 76 | 267 | 0.0 | 8.0 | 0.00 | 0.00 | 0.00 | 47 | 1007.0 |
| 20260504205501 | 76 | 269 | 0.0 | 8.0 | 0.00 | 0.00 | 0.00 | 47 | 1007.0 |
| 20260504205300 | 76 | 131 | 2.0 | 8.0 | 0.00 | 0.00 | 0.00 | 47 | 1007.1 |
| 20260504205201 | 76 | 303 | 2.0 | 8.0 | 0.00 | 0.00 | 0.00 | 46 | 1007.1 |
| 20260504205100 | 77 | 309 | 3.0 | 8.0 | 0.00 | 0.00 | 0.00 | 46 | 1007.0 |
| 20260504204800 | 77 | 208 | 4.0 | 9.0 | 0.00 | 0.00 | 0.00 | 47 | 1007.1 |
| 20260504204559 | 77 | 250 | 1.0 | 7.0 | 0.00 | 0.00 | 0.00 | 47 | 1007.0 |
| 20260504204500 | 77 | 245 | 0.0 | 7.0 | 0.00 | 0.00 | 0.00 | 47 | 1007.0 |
| 20260504204400 | 77 | 29 | 0.0 | 7.0 | 0.00 | 0.00 | 0.00 | 46 | 1007.0 |
| 20260504204301 | 77 | 113 | 2.0 | 7.0 | 0.00 | 0.00 | 0.00 | 46 | 1007.0 |
| 20260504204201 | 77 | 220 | 2.0 | 7.0 | 0.00 | 0.00 | 0.00 | 47 | 1007.1 |
| 20260504204100 | 77 | 337 | 2.0 | 7.0 | 0.00 | 0.00 | 0.00 | 47 | 1007.1 |
| 20260504204000 | 77 | 150 | 2.0 | 5.0 | 0.00 | 0.00 | 0.00 | 47 | 1007.1 |
| 20260504203900 | 77 | 182 | 2.0 | 5.0 | 0.00 | 0.00 | 0.00 | 49 | 1007.1 |
| 20260504203802 | 77 | 209 | 2.0 | 7.0 | 0.00 | 0.00 | 0.00 | 46 | 1007.1 |
| 20260504203600 | 77 | 280 | 4.0 | 7.0 | 0.00 | 0.00 | 0.00 | 48 | 1007.1 |
| 20260504203400 | 77 | 53 | 2.0 | 7.0 | 0.00 | 0.00 | 0.00 | 48 | 1007.2 |
| 20260504203202 | 77 | 121 | 2.0 | 7.0 | 0.00 | 0.00 | 0.00 | 47 | 1007.3 |
| 20260504203101 | 77 | 304 | 5.0 | 7.0 | 0.00 | 0.00 | 0.00 | 48 | 1007.2 |
| 20260504203000 | 76 | 36 | 3.0 | 9.0 | 0.00 | 0.00 | 0.00 | 48 | 1007.3 |
| 20260504202901 | 76 | 277 | 3.0 | 9.0 | 0.00 | 0.00 | 0.00 | 48 | 1007.4 |
| 20260504202802 | 76 | 193 | 2.0 | 9.0 | 0.00 | 0.00 | 0.00 | 48 | 1007.3 |
| 20260504202701 | 76 | 195 | 2.0 | 9.0 | 0.00 | 0.00 | 0.00 | 49 | 1007.4 |
| 20260504202501 | 76 | 175 | 3.0 | 9.0 | 0.00 | 0.00 | 0.00 | 51 | 1007.4 |
| 20260504202401 | 76 | 205 | 1.0 | 9.0 | 0.00 | 0.00 | 0.00 | 49 | 1007.3 |
| 20260504202200 | 76 | 201 | 3.0 | 9.0 | 0.00 | 0.00 | 0.00 | 48 | 1007.5 |
| 20260504202101 | 76 | 205 | 7.0 | 8.0 | 0.00 | 0.00 | 0.00 | 53 | 1007.4 |
| 20260504202001 | 76 | 342 | 3.0 | 7.0 | 0.00 | 0.00 | 0.00 | 51 | 1007.4 |
| 20260504201902 | 75 | 198 | 1.0 | 7.0 | 0.00 | 0.00 | 0.00 | 51 | 1007.5 |
| 20260504201801 | 75 | 112 | 1.0 | 7.0 | 0.00 | 0.00 | 0.00 | 53 | 1007.5 |
| 20260504201700 | 75 | 216 | 1.0 | 7.0 | 0.00 | 0.00 | 0.00 | 52 | 1007.6 |
| 20260504201501 | 75 | 167 | 5.0 | 7.0 | 0.00 | 0.00 | 0.00 | 53 | 1007.6 |
| 20260504201400 | 75 | 35 | 0.0 | 7.0 | 0.00 | 0.00 | 0.00 | 53 | 1007.6 |
| 20260504201301 | 75 | 246 | 1.0 | 7.0 | 0.00 | 0.00 | 0.00 | 52 | 1007.6 |
| 20260504201200 | 75 | 260 | 7.0 | 7.0 | 0.00 | 0.00 | 0.00 | 51 | 1007.6 |
| 20260504201100 | 75 | 284 | 2.0 | 6.0 | 0.00 | 0.00 | 0.00 | 50 | 1007.6 |
| 20260504201000 | 75 | 199 | 4.0 | 6.0 | 0.00 | 0.00 | 0.00 | 52 | 1007.6 |
| 20260504200900 | 75 | 183 | 2.0 | 6.0 | 0.00 | 0.00 | 0.00 | 51 | 1007.7 |
| 20260504200700 | 75 | 213 | 1.0 | 5.0 | 0.00 | 0.00 | 0.00 | 52 | 1007.7 |
| 20260504200600 | 75 | 270 | 1.0 | 5.0 | 0.00 | 0.00 | 0.00 | 51 | 1007.8 |
| 20260504200400 | 75 | 145 | 3.0 | 7.0 | 0.00 | 0.00 | 0.00 | 52 | 1007.7 |
| 20260504200202 | 75 | 211 | 0.0 | 7.0 | 0.00 | 0.00 | 0.00 | 51 | 1007.8 |
| 20260504195959 | 75 | 211 | 1.0 | 7.0 | 0.00 | 0.00 | 0.00 | 51 | 1007.8 |
| 20260504195900 | 75 | 355 | 1.0 | 7.0 | 0.00 | 0.00 | 0.00 | 51 | 1007.8 |
| 20260504195801 | 75 | 185 | 2.0 | 7.0 | 0.00 | 0.00 | 0.00 | 50 | 1007.8 |
| 20260504195659 | 75 | 150 | 2.0 | 7.0 | 0.00 | 0.00 | 0.00 | 52 | 1007.8 |
| 20260504195459 | 75 | 219 | 5.0 | 9.0 | 0.00 | 0.00 | 0.00 | 51 | 1008.0 |
| 20260504195401 | 75 | 207 | 2.0 | 9.0 | 0.00 | 0.00 | 0.00 | 51 | 1007.9 |
| 20260504195259 | 75 | 258 | 3.0 | 9.0 | 0.00 | 0.00 | 0.00 | 50 | 1007.8 |
| 20260504195159 | 75 | 319 | 5.0 | 9.0 | 0.00 | 0.00 | 0.00 | 50 | 1007.9 |
| 20260504195100 | 75 | 222 | 3.0 | 9.0 | 0.00 | 0.00 | 0.00 | 50 | 1007.9 |
| 20260504195000 | 75 | 186 | 5.0 | 9.0 | 0.00 | 0.00 | 0.00 | 52 | 1008.0 |
| 20260504194902 | 75 | 201 | 0.0 | 9.0 | 0.00 | 0.00 | 0.00 | 50 | 1007.9 |
| 20260504194759 | 75 | 213 | 1.0 | 9.0 | 0.00 | 0.00 | 0.00 | 51 | 1007.9 |
| 20260504194659 | 75 | 182 | 3.0 | 9.0 | 0.00 | 0.00 | 0.00 | 51 | 1008.0 |
| 20260504194500 | 75 | 134 | 2.0 | 9.0 | 0.00 | 0.00 | 0.00 | 52 | 1007.9 |
| 20260504194400 | 75 | 186 | 2.0 | 9.0 | 0.00 | 0.00 | 0.00 | 52 | 1008.0 |
| 20260504194301 | 75 | 134 | 1.0 | 9.0 | 0.00 | 0.00 | 0.00 | 52 | 1008.0 |
| 20260504194100 | 75 | 162 | 1.0 | 9.0 | 0.00 | 0.00 | 0.00 | 49 | 1008.0 |
| 20260504193959 | 75 | 310 | 1.0 | 9.0 | 0.00 | 0.00 | 0.00 | 49 | 1008.1 |
| 20260504193859 | 75 | 173 | 6.0 | 10.0 | 0.00 | 0.00 | 0.00 | 51 | 1008.2 |
| 20260504193800 | 75 | 283 | 4.0 | 9.0 | 0.00 | 0.00 | 0.00 | 52 | 1008.1 |
| 20260504193659 | 75 | 288 | 3.0 | 9.0 | 0.00 | 0.00 | 0.00 | 51 | 1008.2 |
| 20260504193600 | 75 | 298 | 8.0 | 9.0 | 0.00 | 0.00 | 0.00 | 52 | 1008.2 |
| 20260504193500 | 75 | 201 | 4.0 | 9.0 | 0.00 | 0.00 | 0.00 | 51 | 1008.1 |
| 20260504193401 | 75 | 251 | 4.0 | 9.0 | 0.00 | 0.00 | 0.00 | 52 | 1008.2 |
| 20260504193301 | 75 | 223 | 1.0 | 9.0 | 0.00 | 0.00 | 0.00 | 52 | 1008.3 |
| 20260504193100 | 74 | 261 | 3.0 | 10.0 | 0.00 | 0.00 | 0.00 | 53 | 1008.3 |
| 20260504192859 | 74 | 160 | 4.0 | 10.0 | 0.00 | 0.00 | 0.00 | 52 | 1008.3 |
| 20260504192800 | 74 | 298 | 2.0 | 10.0 | 0.00 | 0.00 | 0.00 | 53 | 1008.3 |
| 20260504192700 | 74 | 189 | 2.0 | 11.0 | 0.00 | 0.00 | 0.00 | 52 | 1008.3 |
| 20260504192601 | 74 | 101 | 1.0 | 11.0 | 0.00 | 0.00 | 0.00 | 52 | 1008.3 |
| 20260504192501 | 74 | 331 | 4.0 | 11.0 | 0.00 | 0.00 | 0.00 | 53 | 1008.3 |
| 20260504192359 | 74 | 130 | 2.0 | 11.0 | 0.00 | 0.00 | 0.00 | 53 | 1008.4 |
| 20260504192300 | 74 | 186 | 4.0 | 11.0 | 0.00 | 0.00 | 0.00 | 53 | 1008.4 |
| 20260504192201 | 74 | 32 | 4.0 | 11.0 | 0.00 | 0.00 | 0.00 | 56 | 1008.4 |
| 20260504192000 | 73 | 182 | 0.0 | 11.0 | 0.00 | 0.00 | 0.00 | 56 | 1008.4 |
| 20260504191900 | 73 | 192 | 1.0 | 11.0 | 0.00 | 0.00 | 0.00 | 54 | 1008.3 |
| 20260504191801 | 73 | 316 | 11.0 | 11.0 | 0.00 | 0.00 | 0.00 | 55 | 1008.4 |
| 20260504191700 | 73 | 343 | 1.0 | 7.0 | 0.00 | 0.00 | 0.00 | 56 | 1008.4 |
| 20260504191459 | 73 | 303 | 5.0 | 9.0 | 0.00 | 0.00 | 0.00 | 56 | 1008.4 |
| 20260504191401 | 73 | 204 | 2.0 | 9.0 | 0.00 | 0.00 | 0.00 | 56 | 1008.4 |
| 20260504191300 | 73 | 190 | 2.0 | 9.0 | 0.00 | 0.00 | 0.00 | 55 | 1008.3 |
| 20260504191200 | 73 | 96 | 2.0 | 9.0 | 0.00 | 0.00 | 0.00 | 57 | 1008.4 |
| 20260504191101 | 73 | 249 | 2.0 | 9.0 | 0.00 | 0.00 | 0.00 | 55 | 1008.5 |
| 20260504190959 | 73 | 155 | 0.0 | 9.0 | 0.00 | 0.00 | 0.00 | 56 | 1008.5 |
| 20260504190900 | 73 | 202 | 0.0 | 9.0 | 0.00 | 0.00 | 0.00 | 55 | 1008.5 |
| 20260504190800 | 73 | 163 | 4.0 | 9.0 | 0.00 | 0.00 | 0.00 | 55 | 1008.5 |
| 20260504190659 | 73 | 199 | 5.0 | 9.0 | 0.00 | 0.00 | 0.00 | 56 | 1008.6 |
| 20260504190558 | 73 | 194 | 2.0 | 7.0 | 0.00 | 0.00 | 0.00 | 56 | 1008.6 |
| 20260504190459 | 73 | 201 | 3.0 | 11.0 | 0.00 | 0.00 | 0.00 | 56 | 1008.6 |
| 20260504190400 | 73 | 190 | 2.0 | 11.0 | 0.00 | 0.00 | 0.00 | 55 | 1008.6 |
| 20260504190300 | 73 | 190 | 7.0 | 11.0 | 0.00 | 0.00 | 0.00 | 56 | 1008.6 |
| 20260504190200 | 73 | 180 | 1.0 | 11.0 | 0.00 | 0.00 | 0.00 | 59 | 1008.7 |
| 20260504185800 | 72 | 155 | 3.0 | 11.0 | 0.00 | 0.00 | 0.00 | 57 | 1008.7 |
| 20260504185700 | 72 | 192 | 7.0 | 11.0 | 0.00 | 0.00 | 0.00 | 56 | 1008.6 |
| 20260504185601 | 72 | 259 | 8.0 | 13.0 | 0.00 | 0.00 | 0.00 | 56 | 1008.7 |
| 20260504185459 | 72 | 157 | 10.0 | 10.0 | 0.00 | 0.00 | 0.00 | 57 | 1008.7 |
| 20260504185400 | 72 | 289 | 4.0 | 9.0 | 0.00 | 0.00 | 0.00 | 57 | 1008.7 |
| 20260504185259 | 72 | 238 | 3.0 | 9.0 | 0.00 | 0.00 | 0.00 | 60 | 1008.7 |
| 20260504185201 | 72 | 148 | 1.0 | 8.0 | 0.00 | 0.00 | 0.00 | 59 | 1008.8 |
| 20260504185101 | 71 | 111 | 3.0 | 8.0 | 0.00 | 0.00 | 0.00 | 58 | 1008.7 |
| 20260504185000 | 71 | 168 | 5.0 | 8.0 | 0.00 | 0.00 | 0.00 | 59 | 1008.8 |
| 20260504184800 | 71 | 183 | 2.0 | 6.0 | 0.00 | 0.00 | 0.00 | 61 | 1008.8 |
| 20260504184500 | 70 | 200 | 2.0 | 5.0 | 0.00 | 0.00 | 0.00 | 62 | 1008.8 |
| 20260504184401 | 70 | 205 | 4.0 | 5.0 | 0.00 | 0.00 | 0.00 | 63 | 1008.8 |
| 20260504184259 | 70 | 168 | 0.0 | 6.0 | 0.00 | 0.00 | 0.00 | 62 | 1008.8 |
| 20260504184200 | 70 | 168 | 0.0 | 6.0 | 0.00 | 0.00 | 0.00 | 61 | 1008.9 |
| 20260504184101 | 70 | 171 | 0.0 | 6.0 | 0.00 | 0.00 | 0.00 | 60 | 1008.9 |
| 20260504183759 | 70 | 218 | 0.0 | 6.0 | 0.00 | 0.00 | 0.00 | 60 | 1008.9 |
| 20260504183359 | 70 | 207 | 5.0 | 6.0 | 0.00 | 0.00 | 0.00 | 61 | 1008.8 |
| 20260504183259 | 70 | 228 | 4.0 | 6.0 | 0.00 | 0.00 | 0.00 | 60 | 1008.8 |
| 20260504183159 | 70 | 17 | 1.0 | 6.0 | 0.00 | 0.00 | 0.00 | 61 | 1008.9 |
| 20260504183101 | 70 | 28 | 1.0 | 6.0 | 0.00 | 0.00 | 0.00 | 60 | 1008.9 |
| 20260504183000 | 70 | 122 | 3.0 | 6.0 | 0.00 | 0.00 | 0.00 | 61 | 1008.9 |
| 20260504182759 | 70 | 219 | 3.0 | 9.0 | 0.00 | 0.00 | 0.00 | 60 | 1008.8 |
| 20260504182702 | 70 | 168 | 1.0 | 9.0 | 0.00 | 0.00 | 0.00 | 60 | 1008.9 |
| 20260504182600 | 70 | 211 | 0.0 | 9.0 | 0.00 | 0.00 | 0.00 | 60 | 1008.9 |
| 20260504182459 | 70 | 173 | 7.0 | 9.0 | 0.00 | 0.00 | 0.00 | 60 | 1008.9 |
| 20260504182300 | 70 | 216 | 3.0 | 9.0 | 0.00 | 0.00 | 0.00 | 60 | 1008.8 |
| 20260504182159 | 70 | 305 | 1.0 | 9.0 | 0.00 | 0.00 | 0.00 | 59 | 1008.8 |
| 20260504182059 | 70 | 232 | 2.0 | 9.0 | 0.00 | 0.00 | 0.00 | 59 | 1008.9 |
| 20260504182002 | 70 | 165 | 5.0 | 9.0 | 0.00 | 0.00 | 0.00 | 59 | 1008.9 |
| 20260504181859 | 70 | 275 | 1.0 | 9.0 | 0.00 | 0.00 | 0.00 | 59 | 1008.9 |
| 20260504181800 | 70 | 319 | 2.0 | 7.0 | 0.00 | 0.00 | 0.00 | 60 | 1008.8 |
| 20260504181700 | 70 | 212 | 1.0 | 10.0 | 0.00 | 0.00 | 0.00 | 60 | 1008.7 |
| 20260504181600 | 70 | 213 | 1.0 | 10.0 | 0.00 | 0.00 | 0.00 | 60 | 1008.7 |
| 20260504181401 | 70 | 182 | 3.0 | 10.0 | 0.00 | 0.00 | 0.00 | 60 | 1008.8 |
| 20260504181201 | 70 | 198 | 2.0 | 10.0 | 0.00 | 0.00 | 0.00 | 59 | 1008.8 |
| 20260504181100 | 69 | 210 | 3.0 | 11.0 | 0.00 | 0.00 | 0.00 | 60 | 1008.7 |
| 20260504181000 | 69 | 163 | 2.0 | 11.0 | 0.00 | 0.00 | 0.00 | 61 | 1008.6 |
| 20260504180900 | 69 | 99 | 2.0 | 11.0 | 0.00 | 0.00 | 0.00 | 61 | 1008.7 |
| 20260504180800 | 69 | 187 | 1.0 | 11.0 | 0.00 | 0.00 | 0.00 | 60 | 1008.7 |
| 20260504180659 | 69 | 171 | 4.0 | 11.0 | 0.00 | 0.00 | 0.00 | 61 | 1008.7 |
| 20260504180500 | 69 | 215 | 2.0 | 11.0 | 0.00 | 0.00 | 0.00 | 60 | 1008.6 |
| 20260504180259 | 69 | 153 | 4.0 | 12.0 | 0.00 | 0.00 | 0.00 | 59 | 1008.6 |
| 20260504180201 | 69 | 224 | 4.0 | 7.0 | 0.00 | 0.00 | 0.00 | 60 | 1008.6 |
| 20260504175802 | 69 | 174 | 5.0 | 8.0 | 0.00 | 0.00 | 0.00 | 61 | 1008.5 |
| 20260504175700 | 69 | 235 | 2.0 | 8.0 | 0.00 | 0.00 | 0.00 | 61 | 1008.5 |
| 20260504175601 | 69 | 225 | 3.0 | 8.0 | 0.00 | 0.00 | 0.00 | 61 | 1008.5 |
| 20260504175500 | 69 | 165 | 4.0 | 8.0 | 0.00 | 0.00 | 0.00 | 62 | 1008.6 |
| 20260504175401 | 69 | 348 | 3.0 | 8.0 | 0.00 | 0.00 | 0.00 | 62 | 1008.5 |
| 20260504175259 | 69 | 65 | 1.0 | 8.0 | 0.00 | 0.00 | 0.00 | 60 | 1008.5 |
| 20260504175200 | 69 | 209 | 1.0 | 8.0 | 0.00 | 0.00 | 0.00 | 61 | 1008.4 |
| 20260504175100 | 69 | 151 | 4.0 | 8.0 | 0.00 | 0.00 | 0.00 | 59 | 1008.5 |
| 20260504175000 | 69 | 197 | 6.0 | 8.0 | 0.00 | 0.00 | 0.00 | 60 | 1008.4 |
| 20260504174800 | 69 | 271 | 2.0 | 8.0 | 0.00 | 0.00 | 0.00 | 59 | 1008.5 |
| 20260504174659 | 69 | 225 | 4.0 | 9.0 | 0.00 | 0.00 | 0.00 | 60 | 1008.5 |
| 20260504174601 | 69 | 200 | 1.0 | 9.0 | 0.00 | 0.00 | 0.00 | 59 | 1008.5 |
| 20260504174459 | 69 | 333 | 5.0 | 9.0 | 0.00 | 0.00 | 0.00 | 60 | 1008.5 |
| 20260504174359 | 69 | 191 | 3.0 | 9.0 | 0.00 | 0.00 | 0.00 | 61 | 1008.4 |
| 20260504174159 | 69 | 278 | 2.0 | 9.0 | 0.00 | 0.00 | 0.00 | 60 | 1008.5 |
| 20260504174059 | 69 | 170 | 4.0 | 9.0 | 0.00 | 0.00 | 0.00 | 59 | 1008.4 |
| 20260504174001 | 69 | 170 | 1.0 | 9.0 | 0.00 | 0.00 | 0.00 | 59 | 1008.4 |
| 20260504173902 | 69 | 209 | 2.0 | 11.0 | 0.00 | 0.00 | 0.00 | 59 | 1008.5 |
| 20260504173659 | 69 | 179 | 3.0 | 11.0 | 0.00 | 0.00 | 0.00 | 58 | 1008.6 |
| 20260504173601 | 69 | 165 | 4.0 | 11.0 | 0.00 | 0.00 | 0.00 | 61 | 1008.5 |
| 20260504173400 | 68 | 158 | 2.0 | 11.0 | 0.00 | 0.00 | 0.00 | 60 | 1008.5 |
| 20260504173200 | 68 | 186 | 6.0 | 11.0 | 0.00 | 0.00 | 0.00 | 62 | 1008.5 |
| 20260504173000 | 68 | 286 | 6.0 | 8.0 | 0.00 | 0.00 | 0.00 | 62 | 1008.4 |
| 20260504172901 | 68 | 195 | 1.0 | 8.0 | 0.00 | 0.00 | 0.00 | 62 | 1008.5 |
| 20260504172800 | 68 | 230 | 1.0 | 8.0 | 0.00 | 0.00 | 0.00 | 61 | 1008.5 |
| 20260504172700 | 68 | 213 | 4.0 | 8.0 | 0.00 | 0.00 | 0.00 | 60 | 1008.6 |
| 20260504172601 | 68 | 134 | 2.0 | 8.0 | 0.00 | 0.00 | 0.00 | 60 | 1008.6 |
| 20260504172500 | 68 | 190 | 3.0 | 8.0 | 0.00 | 0.00 | 0.00 | 59 | 1008.6 |
| 20260504172401 | 68 | 218 | 2.0 | 8.0 | 0.00 | 0.00 | 0.00 | 59 | 1008.6 |
| 20260504172301 | 68 | 155 | 2.0 | 8.0 | 0.00 | 0.00 | 0.00 | 58 | 1008.6 |
| 20260504172159 | 68 | 257 | 0.0 | 8.0 | 0.00 | 0.00 | 0.00 | 58 | 1008.5 |
| 20260504172100 | 68 | 322 | 2.0 | 8.0 | 0.00 | 0.00 | 0.00 | 60 | 1008.6 |
| 20260504172001 | 68 | 200 | 2.0 | 6.0 | 0.00 | 0.00 | 0.00 | 61 | 1008.6 |
| 20260504171859 | 68 | 156 | 0.0 | 6.0 | 0.00 | 0.00 | 0.00 | 59 | 1008.5 |
| 20260504171802 | 68 | 129 | 2.0 | 8.0 | 0.00 | 0.00 | 0.00 | 60 | 1008.6 |
| 20260504171659 | 68 | 238 | 2.0 | 8.0 | 0.00 | 0.00 | 0.00 | 61 | 1008.5 |
| 20260504171559 | 68 | 143 | 2.0 | 8.0 | 0.00 | 0.00 | 0.00 | 61 | 1008.5 |
| 20260504171500 | 68 | 286 | 3.0 | 8.0 | 0.00 | 0.00 | 0.00 | 61 | 1008.5 |
| 20260504171359 | 68 | 235 | 4.0 | 8.0 | 0.00 | 0.00 | 0.00 | 61 | 1008.6 |
| 20260504171259 | 67 | 128 | 1.0 | 8.0 | 0.00 | 0.00 | 0.00 | 61 | 1008.6 |
| 20260504171201 | 67 | 155 | 3.0 | 8.0 | 0.00 | 0.00 | 0.00 | 61 | 1008.6 |
| 20260504171100 | 67 | 162 | 1.0 | 8.0 | 0.00 | 0.00 | 0.00 | 60 | 1008.6 |
| 20260504170959 | 68 | 178 | 4.0 | 8.0 | 0.00 | 0.00 | 0.00 | 60 | 1008.6 |
| 20260504170900 | 68 | 327 | 8.0 | 8.0 | 0.00 | 0.00 | 0.00 | 60 | 1008.5 |
| 20260504170800 | 68 | 246 | 4.0 | 8.0 | 0.00 | 0.00 | 0.00 | 60 | 1008.4 |
| 20260504170700 | 68 | 179 | 1.0 | 7.0 | 0.00 | 0.00 | 0.00 | 59 | 1008.5 |
| 20260504170559 | 68 | 207 | 4.0 | 7.0 | 0.00 | 0.00 | 0.00 | 59 | 1008.5 |
| 20260504170500 | 68 | 301 | 4.0 | 8.0 | 0.00 | 0.00 | 0.00 | 59 | 1008.5 |
| 20260504170359 | 68 | 202 | 1.0 | 7.0 | 0.00 | 0.00 | 0.00 | 59 | 1008.4 |
| 20260504170300 | 68 | 173 | 2.0 | 7.0 | 0.00 | 0.00 | 0.00 | 58 | 1008.4 |
| 20260504170201 | 69 | 290 | 2.0 | 7.0 | 0.00 | 0.00 | 0.00 | 59 | 1008.4 |
| 20260504160400 | 68 | 138 | 8.0 | 8.0 | 0.00 | 0.00 | 0.00 | 62 | 1009.2 |
| 20260504160300 | 68 | 355 | 0.0 | 6.0 | 0.00 | 0.00 | 0.00 | 62 | 1009.1 |
| 20260504160201 | 68 | 298 | 2.0 | 6.0 | 0.00 | 0.00 | 0.00 | 60 | 1009.1 |
| 20260504151101 | 65 | 244 | 0.0 | 6.0 | 0.00 | 0.00 | 0.00 | 63 | 1009.1 |
| 20260504151000 | 65 | 265 | 1.0 | 6.0 | 0.00 | 0.00 | 0.00 | 64 | 1009.1 |
| 20260504150859 | 65 | 211 | 2.0 | 6.0 | 0.00 | 0.00 | 0.00 | 63 | 1009.0 |
| 20260504150800 | 65 | 277 | 1.0 | 6.0 | 0.00 | 0.00 | 0.00 | 65 | 1009.1 |
| 20260504150700 | 65 | 283 | 0.0 | 6.0 | 0.00 | 0.00 | 0.00 | 64 | 1009.2 |
| 20260504150601 | 65 | 281 | 2.0 | 6.0 | 0.00 | 0.00 | 0.00 | 64 | 1009.1 |
| 20260504150300 | 64 | 188 | 2.0 | 10.0 | 0.00 | 0.00 | 0.00 | 62 | 1009.0 |
| 20260504150201 | 64 | 179 | 2.0 | 10.0 | 0.00 | 0.00 | 0.00 | 66 | 1009.0 |
| 20260504141300 | 61 | 134 | 0.0 | 4.0 | 0.00 | 0.00 | 0.00 | 66 | 1008.9 |
| 20260504141200 | 61 | 219 | 0.0 | 4.0 | 0.00 | 0.00 | 0.00 | 66 | 1009.1 |
| 20260504141101 | 61 | 144 | 2.0 | 4.0 | 0.00 | 0.00 | 0.00 | 66 | 1009.1 |
| 20260504141000 | 61 | 196 | 0.0 | 4.0 | 0.00 | 0.00 | 0.00 | 67 | 1009.1 |
| 20260504140902 | 61 | 214 | 0.0 | 4.0 | 0.00 | 0.00 | 0.00 | 66 | 1009.1 |
| 20260504140800 | 61 | 265 | 0.0 | 4.0 | 0.00 | 0.00 | 0.00 | 66 | 1009.1 |
| 20260504140701 | 61 | 317 | 0.0 | 4.0 | 0.00 | 0.00 | 0.00 | 66 | 1009.0 |
| 20260504140600 | 61 | 179 | 2.0 | 4.0 | 0.00 | 0.00 | 0.00 | 66 | 1009.1 |
| 20260504140500 | 60 | 146 | 0.0 | 5.0 | 0.00 | 0.00 | 0.00 | 67 | 1009.1 |
| 20260504140400 | 60 | 339 | 1.0 | 5.0 | 0.00 | 0.00 | 0.00 | 67 | 1009.0 |
| 20260504140301 | 60 | 63 | 2.0 | 5.0 | 0.00 | 0.00 | 0.00 | 66 | 1009.0 |
| 20260504140200 | 60 | 139 | 1.0 | 6.0 | 0.00 | 0.00 | 0.00 | 66 | 1009.1 |
| 20260504130759 | 56 | 262 | 2.0 | 6.0 | 0.00 | 0.00 | 0.00 | 71 | 1009.8 |
| 20260504130559 | 56 | 191 | 1.0 | 6.0 | 0.00 | 0.00 | 0.00 | 71 | 1009.8 |
| 20260504130500 | 56 | 206 | 0.0 | 6.0 | 0.00 | 0.00 | 0.00 | 70 | 1009.8 |
| 20260504130359 | 56 | 118 | 3.0 | 5.0 | 0.00 | 0.00 | 0.00 | 71 | 1009.9 |
| 20260504130259 | 55 | 132 | 1.0 | 5.0 | 0.00 | 0.00 | 0.00 | 70 | 1009.8 |
| 20260504130201 | 55 | 153 | 1.0 | 5.0 | 0.00 | 0.00 | 0.00 | 70 | 1009.9 |
| 20260504120259 | 55 | 181 | 0.0 | 5.0 | 0.00 | 0.00 | 0.00 | 70 | 1009.9 |
| 20260504120202 | 55 | 71 | 1.0 | 5.0 | 0.00 | 0.00 | 0.00 | 70 | 1009.8 |
| 20260504110559 | 54 | 251 | 0.0 | 6.0 | 0.00 | 0.00 | 0.00 | 67 | 1009.5 |
| 20260504110501 | 54 | 213 | 1.0 | 6.0 | 0.00 | 0.00 | 0.00 | 67 | 1009.5 |
| 20260504110401 | 54 | 210 | 1.0 | 6.0 | 0.00 | 0.00 | 0.00 | 67 | 1009.5 |
| 20260504110259 | 54 | 203 | 1.0 | 6.0 | 0.00 | 0.00 | 0.00 | 67 | 1009.5 |
| 20260504110201 | 54 | 199 | 3.0 | 7.0 | 0.00 | 0.00 | 0.00 | 68 | 1009.6 |
| 20260504100601 | 53 | 238 | 1.0 | 7.0 | 0.00 | 0.00 | 0.00 | 66 | 1009.9 |
| 20260504100459 | 53 | 200 | 7.0 | 7.0 | 0.00 | 0.00 | 0.00 | 66 | 1009.8 |
| 20260504100359 | 53 | 290 | 2.0 | 5.0 | 0.00 | 0.00 | 0.00 | 66 | 1009.8 |
| 20260504100200 | 53 | 221 | 1.0 | 5.0 | 0.00 | 0.00 | 0.00 | 66 | 1009.9 |
| 20260504082002 | 53 | 148 | 3.0 | 8.0 | 0.00 | 0.00 | 0.00 | 62 | 1010.4 |
| 20260504081859 | 53 | 136 | 4.0 | 5.0 | 0.00 | 0.00 | 0.00 | 61 | 1010.4 |
| 20260504081758 | 53 | 118 | 2.0 | 4.0 | 0.00 | 0.00 | 0.00 | 62 | 1010.4 |
| 20260504081700 | 53 | 211 | 1.0 | 5.0 | 0.00 | 0.00 | 0.00 | 63 | 1010.4 |
| 20260504081600 | 53 | 204 | 1.0 | 5.0 | 0.00 | 0.00 | 0.00 | 62 | 1010.4 |
| 20260504081459 | 53 | 308 | 0.0 | 5.0 | 0.00 | 0.00 | 0.00 | 62 | 1010.4 |
| 20260504081403 | 53 | 189 | 0.0 | 5.0 | 0.00 | 0.00 | 0.00 | 62 | 1010.4 |
| 20260504081301 | 53 | 218 | 0.0 | 5.0 | 0.00 | 0.00 | 0.00 | 62 | 1010.3 |
| 20260504081200 | 53 | 243 | 0.0 | 5.0 | 0.00 | 0.00 | 0.00 | 62 | 1010.4 |
| 20260504081059 | 53 | 264 | 0.0 | 5.0 | 0.00 | 0.00 | 0.00 | 62 | 1010.4 |
| 20260504080959 | 53 | 248 | 2.0 | 5.0 | 0.00 | 0.00 | 0.00 | 62 | 1010.4 |
| 20260504080900 | 53 | 223 | 0.0 | 5.0 | 0.00 | 0.00 | 0.00 | 62 | 1010.4 |
| 20260504080659 | 53 | 211 | 0.0 | 5.0 | 0.00 | 0.00 | 0.00 | 61 | 1010.5 |
| 20260504080459 | 53 | 115 | 1.0 | 3.0 | 0.00 | 0.00 | 0.00 | 62 | 1010.5 |
| 20260504080359 | 53 | 212 | 2.0 | 3.0 | 0.00 | 0.00 | 0.00 | 62 | 1010.5 |
| 20260504080300 | 53 | 186 | 0.0 | 3.0 | 0.00 | 0.00 | 0.00 | 61 | 1010.5 |
| 20260504080203 | 53 | 162 | 0.0 | 3.0 | 0.00 | 0.00 | 0.00 | 61 | 1010.5 |